Observation data for Tahoka on 09/10/2017      Previous  Date       Current Mesonet Observations  Soil Data  Daily Summary Page  Observations in Plain Language
KTAS 100500Z 13006KT 17/08 A3021 RMK A01 T01670080  RH  056%=      5-min Rain = 0
KTAS 100501Z 13006KT 17/08 A3021 RMK A01 T01660080  RH  057%=      5-min Rain = 0
KTAS 100502Z 13006KT 17/08 A3021 RMK A01 T01660080  RH  057%=      5-min Rain = 0
KTAS 100503Z 12006KT 17/08 A3021 RMK A01 T01660080  RH  057%=      5-min Rain = 0
KTAS 100504Z 12006KT 17/08 A3021 RMK A01 T01650080  RH  057%=      5-min Rain = 0
KTAS 100505Z 12006KT 17/08 A3021 RMK A01 T01650080  RH  057%=      5-min Rain = 0
KTAS 100506Z 12006KT 16/08 A3021 RMK A01 T01640080  RH  057%=      5-min Rain = 0
KTAS 100507Z 12006KT 16/08 A3021 RMK A01 T01640080  RH  058%=      5-min Rain = 0
KTAS 100508Z 12005KT 16/08 A3021 RMK A01 T01630080  RH  058%=      5-min Rain = 0
KTAS 100509Z 12006KT 16/08 A3021 RMK A01 T01620081  RH  058%=      5-min Rain = 0
KTAS 100510Z 12007KT 16/08 A3021 RMK A01 T01620081  RH  058%=      5-min Rain = 0
KTAS 100511Z 13006KT 16/08 A3021 RMK A01 T01620081  RH  058%=      5-min Rain = 0
KTAS 100512Z 12006KT 16/08 A3021 RMK A01 T01620081  RH  059%=      5-min Rain = 0
KTAS 100513Z 12006KT 16/08 A3021 RMK A01 T01620081  RH  059%=      5-min Rain = 0
KTAS 100514Z 12006KT 16/08 A3021 RMK A01 T01610081  RH  059%=      5-min Rain = 0
KTAS 100515Z 12006KT 16/08 A3021 RMK A01 T01610081  RH  059%=      5-min Rain = 0
KTAS 100516Z 12006KT 16/08 A3021 RMK A01 T01610081  RH  059%=      5-min Rain = 0
KTAS 100517Z 12006KT 16/08 A3021 RMK A01 T01600081  RH  059%=      5-min Rain = 0
KTAS 100518Z 12006KT 16/08 A3021 RMK A01 T01600081  RH  059%=      5-min Rain = 0
KTAS 100519Z 12006KT 16/08 A3021 RMK A01 T01600081  RH  059%=      5-min Rain = 0
KTAS 100520Z 12006KT 16/08 A3021 RMK A01 T01600081  RH  060%=      5-min Rain = 0
KTAS 100521Z 12006KT 16/08 A3021 RMK A01 T01600081  RH  059%=      5-min Rain = 0
KTAS 100522Z 12006KT 16/08 A3021 RMK A01 T01600081  RH  060%=      5-min Rain = 0
KTAS 100523Z 12005KT 16/08 A3021 RMK A01 T01590081  RH  060%=      5-min Rain = 0
KTAS 100524Z 12005KT 16/08 A3022 RMK A01 T01580081  RH  060%=      5-min Rain = 0
KTAS 100525Z 12005KT 16/08 A3022 RMK A01 T01580082  RH  060%=      5-min Rain = 0
KTAS 100526Z 12005KT 16/08 A3022 RMK A01 T01580082  RH  061%=      5-min Rain = 0
KTAS 100527Z 12005KT 16/08 A3022 RMK A01 T01570082  RH  061%=      5-min Rain = 0
KTAS 100528Z 12005KT 16/08 A3022 RMK A01 T01570082  RH  061%=      5-min Rain = 0
KTAS 100529Z 12005KT 16/08 A3022 RMK A01 T01570082  RH  061%=      5-min Rain = 0
KTAS 100530Z 12005KT 16/08 A3022 RMK A01 T01560082  RH  061%=      5-min Rain = 0
KTAS 100531Z 12005KT 16/08 A3022 RMK A01 T01560082  RH  061%=      5-min Rain = 0
KTAS 100532Z 12005KT 16/08 A3022 RMK A01 T01550082  RH  061%=      5-min Rain = 0
KTAS 100533Z 12005KT 16/08 A3022 RMK A01 T01550082  RH  062%=      5-min Rain = 0
KTAS 100534Z 12005KT 15/08 A3022 RMK A01 T01540081  RH  062%=      5-min Rain = 0
KTAS 100535Z 12005KT 15/08 A3021 RMK A01 T01540081  RH  062%=      5-min Rain = 0
KTAS 100536Z 12005KT 15/08 A3021 RMK A01 T01530081  RH  062%=      5-min Rain = 0
KTAS 100537Z 11005KT 15/08 A3021 RMK A01 T01520081  RH  062%=      5-min Rain = 0
KTAS 100538Z 11005KT 15/08 A3021 RMK A01 T01520081  RH  063%=      5-min Rain = 0
KTAS 100539Z 11005KT 15/08 A3021 RMK A01 T01510081  RH  063%=      5-min Rain = 0
KTAS 100540Z 11005KT 15/08 A3021 RMK A01 T01510081  RH  063%=      5-min Rain = 0
KTAS 100541Z 11005KT 15/08 A3021 RMK A01 T01510081  RH  063%=      5-min Rain = 0
KTAS 100542Z 10005KT 15/08 A3021 RMK A01 T01510081  RH  063%=      5-min Rain = 0
KTAS 100543Z 10005KT 15/08 A3021 RMK A01 T01510081  RH  063%=      5-min Rain = 0
KTAS 100544Z 10005KT 15/08 A3021 RMK A01 T01500081  RH  063%=      5-min Rain = 0
KTAS 100545Z 10005KT 15/08 A3021 RMK A01 T01490081  RH  063%=      5-min Rain = 0
KTAS 100546Z 10005KT 15/08 A3021 RMK A01 T01490081  RH  064%=      5-min Rain = 0
KTAS 100547Z 10005KT 15/08 A3021 RMK A01 T01480081  RH  064%=      5-min Rain = 0
KTAS 100548Z 10005KT 15/08 A3021 RMK A01 T01470080  RH  064%=      5-min Rain = 0
KTAS 100549Z 11005KT 15/08 A3021 RMK A01 T01460080  RH  065%=      5-min Rain = 0
KTAS 100550Z 11005KT 15/08 A3021 RMK A01 T01460080  RH  065%=      5-min Rain = 0
KTAS 100551Z 10005KT 15/08 A3022 RMK A01 T01460080  RH  065%=      5-min Rain = 0
KTAS 100552Z 10005KT 15/08 A3022 RMK A01 T01460080  RH  065%=      5-min Rain = 0
KTAS 100553Z 10005KT 15/08 A3022 RMK A01 T01450080  RH  065%=      5-min Rain = 0
KTAS 100554Z 09005KT 15/08 A3022 RMK A01 T01450079  RH  065%=      5-min Rain = 0
KTAS 100555Z 09005KT 14/08 A3022 RMK A01 T01440079  RH  065%=      5-min Rain = 0
KTAS 100556Z 09004KT 14/08 A3022 RMK A01 T01440079  RH  065%=      5-min Rain = 0
KTAS 100557Z 09004KT 14/08 A3022 RMK A01 T01440080  RH  065%=      5-min Rain = 0
KTAS 100558Z 08004KT 14/08 A3022 RMK A01 T01440080  RH  066%=      5-min Rain = 0
KTAS 100559Z 08004KT 14/08 A3022 RMK A01 T01440080  RH  065%=      5-min Rain = 0
KTAS 100600Z 09004KT 14/08 A3022 RMK A01 T01430080  RH  066%=      5-min Rain = 0
KTAS 100601Z 09004KT 14/08 A3022 RMK A01 T01430080  RH  066%=      5-min Rain = 0
KTAS 100602Z 09004KT 14/08 A3022 RMK A01 T01430080  RH  066%=      5-min Rain = 0
KTAS 100603Z 09005KT 14/08 A3022 RMK A01 T01420080  RH  066%=      5-min Rain = 0
KTAS 100604Z 09005KT 14/08 A3022 RMK A01 T01430080  RH  066%=      5-min Rain = 0
KTAS 100605Z 09005KT 14/08 A3022 RMK A01 T01430080  RH  066%=      5-min Rain = 0
KTAS 100606Z 10005KT 14/08 A3022 RMK A01 T01440080  RH  065%=      5-min Rain = 0
KTAS 100607Z 09005KT 15/08 A3022 RMK A01 T01450080  RH  065%=      5-min Rain = 0
KTAS 100608Z 09005KT 15/08 A3022 RMK A01 T01450080  RH  065%=      5-min Rain = 0
KTAS 100609Z 09005KT 15/08 A3022 RMK A01 T01450080  RH  065%=      5-min Rain = 0
KTAS 100610Z 09005KT 15/08 A3022 RMK A01 T01450080  RH  065%=      5-min Rain = 0
KTAS 100611Z 09005KT 15/08 A3022 RMK A01 T01450080  RH  065%=      5-min Rain = 0
KTAS 100612Z 09005KT 15/08 A3022 RMK A01 T01450080  RH  065%=      5-min Rain = 0
KTAS 100613Z 09005KT 15/08 A3022 RMK A01 T01450080  RH  065%=      5-min Rain = 0
KTAS 100614Z 10005KT 15/08 A3022 RMK A01 T01450080  RH  065%=      5-min Rain = 0
KTAS 100615Z 10005KT 15/08 A3022 RMK A01 T01460080  RH  065%=      5-min Rain = 0
KTAS 100616Z 10005KT 15/08 A3022 RMK A01 T01460080  RH  065%=      5-min Rain = 0
KTAS 100617Z 10006KT 15/08 A3022 RMK A01 T01450080  RH  065%=      5-min Rain = 0
KTAS 100618Z 10006KT 15/08 A3022 RMK A01 T01450080  RH  065%=      5-min Rain = 0
KTAS 100619Z 10006KT 15/08 A3022 RMK A01 T01450080  RH  065%=      5-min Rain = 0
KTAS 100620Z 11006KT 15/08 A3022 RMK A01 T01450080  RH  065%=      5-min Rain = 0
KTAS 100621Z 11006KT 15/08 A3022 RMK A01 T01460080  RH  065%=      5-min Rain = 0
KTAS 100622Z 11006KT 15/08 A3022 RMK A01 T01460079  RH  064%=      5-min Rain = 0
KTAS 100623Z 11006KT 15/08 A3022 RMK A01 T01460079  RH  064%=      5-min Rain = 0
KTAS 100624Z 10006KT 15/08 A3022 RMK A01 T01460079  RH  064%=      5-min Rain = 0
KTAS 100625Z 10006KT 15/08 A3022 RMK A01 T01460079  RH  064%=      5-min Rain = 0
KTAS 100626Z 10006KT 15/08 A3022 RMK A01 T01460079  RH  064%=      5-min Rain = 0
KTAS 100627Z 10006KT 15/08 A3022 RMK A01 T01460079  RH  064%=      5-min Rain = 0
KTAS 100628Z 10006KT 15/08 A3022 RMK A01 T01460079  RH  064%=      5-min Rain = 0
KTAS 100629Z 10006KT 15/08 A3022 RMK A01 T01460079  RH  064%=      5-min Rain = 0
KTAS 100630Z 10006KT 15/08 A3022 RMK A01 T01460079  RH  064%=      5-min Rain = 0
KTAS 100631Z 10006KT 15/08 A3022 RMK A01 T01460079  RH  064%=      5-min Rain = 0
KTAS 100632Z 11006KT 15/08 A3022 RMK A01 T01460079  RH  064%=      5-min Rain = 0
KTAS 100633Z 11006KT 15/08 A3022 RMK A01 T01460079  RH  064%=      5-min Rain = 0
KTAS 100634Z 11006KT 15/08 A3022 RMK A01 T01460079  RH  064%=      5-min Rain = 0
KTAS 100635Z 11006KT 15/08 A3022 RMK A01 T01450079  RH  065%=      5-min Rain = 0
KTAS 100636Z 11006KT 15/08 A3022 RMK A01 T01450079  RH  065%=      5-min Rain = 0
KTAS 100637Z 11006KT 15/08 A3022 RMK A01 T01450079  RH  065%=      5-min Rain = 0
KTAS 100638Z 11006KT 15/08 A3022 RMK A01 T01450079  RH  065%=      5-min Rain = 0
KTAS 100639Z 11006KT 15/08 A3022 RMK A01 T01450079  RH  065%=      5-min Rain = 0
KTAS 100640Z 11006KT 15/08 A3022 RMK A01 T01450079  RH  065%=      5-min Rain = 0
KTAS 100641Z 11006KT 15/08 A3022 RMK A01 T01460080  RH  065%=      5-min Rain = 0
KTAS 100642Z 11006KT 15/08 A3022 RMK A01 T01450080  RH  065%=      5-min Rain = 0
KTAS 100643Z 11006KT 15/08 A3022 RMK A01 T01450080  RH  065%=      5-min Rain = 0
KTAS 100644Z 11006KT 15/08 A3022 RMK A01 T01450080  RH  065%=      5-min Rain = 0
KTAS 100645Z 11007KT 15/08 A3022 RMK A01 T01450080  RH  065%=      5-min Rain = 0
KTAS 100646Z 11006KT 15/08 A3022 RMK A01 T01450080  RH  065%=      5-min Rain = 0
KTAS 100647Z 11007KT 15/08 A3022 RMK A01 T01450080  RH  065%=      5-min Rain = 0
KTAS 100648Z 11007KT 15/08 A3022 RMK A01 T01450080  RH  065%=      5-min Rain = 0
KTAS 100649Z 11007KT 15/08 A3022 RMK A01 T01450080  RH  065%=      5-min Rain = 0
KTAS 100650Z 11007KT 15/08 A3022 RMK A01 T01460081  RH  065%=      5-min Rain = 0
KTAS 100651Z 11007KT 15/08 A3022 RMK A01 T01460080  RH  065%=      5-min Rain = 0
KTAS 100652Z 10007KT 15/08 A3022 RMK A01 T01460081  RH  065%=      5-min Rain = 0
KTAS 100653Z 10007KT 15/08 A3022 RMK A01 T01460081  RH  065%=      5-min Rain = 0
KTAS 100654Z 09006KT 15/08 A3022 RMK A01 T01450081  RH  065%=      5-min Rain = 0
KTAS 100655Z 08006KT 15/08 A3022 RMK A01 T01450081  RH  065%=      5-min Rain = 0
KTAS 100656Z 07006KT 14/08 A3022 RMK A01 T01440081  RH  066%=      5-min Rain = 0
KTAS 100657Z 06006KT 14/08 A3022 RMK A01 T01430081  RH  066%=      5-min Rain = 0
KTAS 100658Z 06006KT 14/08 A3022 RMK A01 T01420081  RH  067%=      5-min Rain = 0
KTAS 100659Z 06006KT 14/08 A3022 RMK A01 T01420082  RH  067%=      5-min Rain = 0
KTAS 100700Z 06006KT 14/08 A3022 RMK A01 T01420083  RH  068%=      5-min Rain = 0
KTAS 100701Z 06006KT 14/08 A3022 RMK A01 T01420083  RH  068%=      5-min Rain = 0
KTAS 100702Z 08004KT 14/08 A3022 RMK A01 T01420083  RH  068%=      5-min Rain = 0
KTAS 100703Z 08005KT 14/08 A3022 RMK A01 T01410083  RH  068%=      5-min Rain = 0
KTAS 100704Z 09006KT 14/08 A3022 RMK A01 T01400083  RH  069%=      5-min Rain = 0
KTAS 100705Z 09006KT 14/08 A3022 RMK A01 T01400083  RH  069%=      5-min Rain = 0
KTAS 100706Z 10006KT 14/08 A3022 RMK A01 T01410083  RH  068%=      5-min Rain = 0
KTAS 100707Z 11006KT 14/08 A3022 RMK A01 T01420083  RH  068%=      5-min Rain = 0
KTAS 100708Z 11007KT 14/08 A3022 RMK A01 T01430084  RH  067%=      5-min Rain = 0
KTAS 100709Z 11007KT 14/08 A3022 RMK A01 T01440083  RH  067%=      5-min Rain = 0
KTAS 100710Z 11006KT 14/08 A3022 RMK A01 T01440083  RH  067%=      5-min Rain = 0
KTAS 100711Z 11006KT 14/08 A3022 RMK A01 T01440083  RH  067%=      5-min Rain = 0
KTAS 100712Z 10006KT 14/08 A3022 RMK A01 T01440083  RH  067%=      5-min Rain = 0
KTAS 100713Z 10007KT 14/08 A3022 RMK A01 T01440083  RH  067%=      5-min Rain = 0
KTAS 100714Z 10006KT 14/08 A3022 RMK A01 T01440083  RH  067%=      5-min Rain = 0
KTAS 100715Z 10006KT 14/08 A3022 RMK A01 T01440083  RH  067%=      5-min Rain = 0
KTAS 100716Z 10006KT 15/08 A3022 RMK A01 T01450083  RH  067%=      5-min Rain = 0
KTAS 100717Z 11007KT 15/08 A3022 RMK A01 T01450083  RH  067%=      5-min Rain = 0
KTAS 100718Z 11006KT 14/08 A3022 RMK A01 T01440083  RH  067%=      5-min Rain = 0
KTAS 100719Z 10006KT 14/08 A3022 RMK A01 T01440083  RH  067%=      5-min Rain = 0
KTAS 100720Z 10006KT 14/08 A3022 RMK A01 T01440083  RH  067%=      5-min Rain = 0
KTAS 100721Z 10006KT 14/08 A3022 RMK A01 T01440083  RH  067%=      5-min Rain = 0
KTAS 100722Z 10006KT 14/08 A3022 RMK A01 T01440083  RH  067%=      5-min Rain = 0
KTAS 100723Z 10006KT 14/08 A3022 RMK A01 T01440083  RH  067%=      5-min Rain = 0
KTAS 100724Z 10006KT 14/08 A3022 RMK A01 T01430082  RH  067%=      5-min Rain = 0
KTAS 100725Z 10006KT 14/08 A3022 RMK A01 T01430082  RH  067%=      5-min Rain = 0
KTAS 100726Z 10006KT 14/08 A3022 RMK A01 T01420082  RH  067%=      5-min Rain = 0
KTAS 100727Z 10006KT 14/08 A3022 RMK A01 T01420082  RH  067%=      5-min Rain = 0
KTAS 100728Z 10005KT 14/08 A3022 RMK A01 T01420082  RH  067%=      5-min Rain = 0
KTAS 100729Z 10005KT 14/08 A3022 RMK A01 T01410082  RH  067%=      5-min Rain = 0
KTAS 100730Z 10005KT 14/08 A3022 RMK A01 T01410081  RH  067%=      5-min Rain = 0
KTAS 100731Z 09006KT 14/08 A3022 RMK A01 T01410081  RH  067%=      5-min Rain = 0
KTAS 100732Z 09006KT 14/08 A3022 RMK A01 T01400081  RH  067%=      5-min Rain = 0
KTAS 100733Z 09006KT 14/08 A3022 RMK A01 T01400081  RH  067%=      5-min Rain = 0
KTAS 100734Z 09006KT 14/08 A3022 RMK A01 T01400081  RH  067%=      5-min Rain = 0
KTAS 100735Z 10006KT 14/08 A3022 RMK A01 T01400081  RH  068%=      5-min Rain = 0
KTAS 100736Z 10006KT 14/08 A3022 RMK A01 T01400081  RH  068%=      5-min Rain = 0
KTAS 100737Z 09006KT 14/08 A3022 RMK A01 T01390081  RH  068%=      5-min Rain = 0
KTAS 100738Z 10006KT 14/08 A3022 RMK A01 T01400081  RH  067%=      5-min Rain = 0
KTAS 100739Z 10006KT 14/08 A3022 RMK A01 T01400081  RH  067%=      5-min Rain = 0
KTAS 100740Z 09006KT 14/08 A3022 RMK A01 T01400081  RH  067%=      5-min Rain = 0
KTAS 100741Z 09006KT 14/08 A3022 RMK A01 T01400081  RH  067%=      5-min Rain = 0
KTAS 100742Z 09006KT 14/08 A3022 RMK A01 T01400080  RH  067%=      5-min Rain = 0
KTAS 100743Z 08005KT 14/08 A3022 RMK A01 T01390080  RH  068%=      5-min Rain = 0
KTAS 100744Z 08005KT 14/08 A3022 RMK A01 T01380080  RH  068%=      5-min Rain = 0
KTAS 100745Z 08005KT 14/08 A3022 RMK A01 T01370080  RH  069%=      5-min Rain = 0
KTAS 100746Z 08006KT 14/08 A3022 RMK A01 T01360080  RH  069%=      5-min Rain = 0
KTAS 100747Z 08006KT 14/08 A3022 RMK A01 T01360080  RH  069%=      5-min Rain = 0
KTAS 100748Z 08006KT 14/08 A3022 RMK A01 T01360080  RH  069%=      5-min Rain = 0
KTAS 100749Z 08006KT 14/08 A3022 RMK A01 T01360080  RH  069%=      5-min Rain = 0
KTAS 100750Z 08006KT 14/08 A3022 RMK A01 T01350081  RH  069%=      5-min Rain = 0
KTAS 100751Z 09006KT 14/08 A3022 RMK A01 T01350081  RH  070%=      5-min Rain = 0
KTAS 100752Z 09006KT 14/08 A3022 RMK A01 T01350081  RH  070%=      5-min Rain = 0
KTAS 100753Z 09006KT 14/08 A3022 RMK A01 T01350081  RH  070%=      5-min Rain = 0
KTAS 100754Z 09006KT 14/08 A3022 RMK A01 T01350081  RH  070%=      5-min Rain = 0
KTAS 100755Z 10006KT 14/08 A3022 RMK A01 T01350081  RH  070%=      5-min Rain = 0
KTAS 100756Z 10006KT 14/08 A3022 RMK A01 T01350080  RH  070%=      5-min Rain = 0
KTAS 100757Z 09006KT 14/08 A3022 RMK A01 T01350080  RH  070%=      5-min Rain = 0
KTAS 100758Z 09006KT 14/08 A3023 RMK A01 T01350080  RH  070%=      5-min Rain = 0
KTAS 100759Z 09006KT 14/08 A3023 RMK A01 T01350080  RH  069%=      5-min Rain = 0
KTAS 100800Z 08006KT 14/08 A3023 RMK A01 T01360080  RH  069%=      5-min Rain = 0
KTAS 100801Z 08006KT 14/08 A3023 RMK A01 T01350080  RH  069%=      5-min Rain = 0
KTAS 100802Z 08006KT 14/08 A3022 RMK A01 T01350080  RH  069%=      5-min Rain = 0
KTAS 100803Z 08006KT 14/08 A3022 RMK A01 T01350080  RH  069%=      5-min Rain = 0
KTAS 100804Z 08005KT 14/08 A3022 RMK A01 T01350080  RH  069%=      5-min Rain = 0
KTAS 100805Z 08005KT 14/08 A3022 RMK A01 T01350080  RH  069%=      5-min Rain = 0
KTAS 100806Z 08005KT 13/08 A3022 RMK A01 T01340080  RH  070%=      5-min Rain = 0
KTAS 100807Z 08005KT 13/08 A3022 RMK A01 T01340080  RH  070%=      5-min Rain = 0
KTAS 100808Z 08005KT 13/08 A3022 RMK A01 T01340081  RH  070%=      5-min Rain = 0
KTAS 100809Z 09005KT 13/08 A3022 RMK A01 T01340081  RH  070%=      5-min Rain = 0
KTAS 100810Z 08005KT 13/08 A3023 RMK A01 T01340081  RH  070%=      5-min Rain = 0
KTAS 100811Z 08005KT 13/08 A3023 RMK A01 T01330081  RH  070%=      5-min Rain = 0
KTAS 100812Z 09005KT 13/08 A3023 RMK A01 T01330081  RH  071%=      5-min Rain = 0
KTAS 100813Z 09006KT 13/08 A3023 RMK A01 T01330081  RH  071%=      5-min Rain = 0
KTAS 100814Z 09006KT 13/08 A3023 RMK A01 T01320081  RH  071%=      5-min Rain = 0
KTAS 100815Z 10006KT 13/08 A3023 RMK A01 T01320081  RH  071%=      5-min Rain = 0
KTAS 100816Z 10006KT 13/08 A3023 RMK A01 T01320081  RH  071%=      5-min Rain = 0
KTAS 100817Z 10006KT 13/08 A3022 RMK A01 T01310081  RH  071%=      5-min Rain = 0
KTAS 100818Z 10006KT 13/08 A3022 RMK A01 T01310081  RH  072%=      5-min Rain = 0
KTAS 100819Z 10006KT 13/08 A3022 RMK A01 T01310081  RH  072%=      5-min Rain = 0
KTAS 100820Z 10006KT 13/08 A3022 RMK A01 T01300081  RH  072%=      5-min Rain = 0
KTAS 100821Z 10006KT 13/08 A3022 RMK A01 T01300081  RH  072%=      5-min Rain = 0
KTAS 100822Z 10006KT 13/08 A3023 RMK A01 T01300081  RH  072%=      5-min Rain = 0
KTAS 100823Z 10006KT 13/08 A3023 RMK A01 T01300081  RH  072%=      5-min Rain = 0
KTAS 100824Z 10006KT 13/08 A3023 RMK A01 T01300081  RH  072%=      5-min Rain = 0
KTAS 100825Z 10006KT 13/08 A3023 RMK A01 T01300081  RH  072%=      5-min Rain = 0
KTAS 100826Z 10006KT 13/08 A3022 RMK A01 T01300081  RH  072%=      5-min Rain = 0
KTAS 100827Z 10006KT 13/08 A3022 RMK A01 T01300081  RH  072%=      5-min Rain = 0
KTAS 100828Z 10006KT 13/08 A3022 RMK A01 T01310081  RH  072%=      5-min Rain = 0
KTAS 100829Z 09005KT 13/08 A3022 RMK A01 T01310081  RH  072%=      5-min Rain = 0
KTAS 100830Z 10005KT 13/08 A3022 RMK A01 T01320082  RH  072%=      5-min Rain = 0
KTAS 100831Z 10005KT 13/08 A3022 RMK A01 T01320082  RH  071%=      5-min Rain = 0
KTAS 100832Z 10005KT 13/08 A3022 RMK A01 T01320081  RH  071%=      5-min Rain = 0
KTAS 100833Z 10005KT 13/08 A3022 RMK A01 T01320081  RH  071%=      5-min Rain = 0
KTAS 100834Z 09005KT 13/08 A3022 RMK A01 T01330082  RH  071%=      5-min Rain = 0
KTAS 100835Z 09005KT 13/08 A3023 RMK A01 T01330082  RH  071%=      5-min Rain = 0
KTAS 100836Z 09005KT 13/08 A3023 RMK A01 T01340082  RH  071%=      5-min Rain = 0
KTAS 100837Z 09005KT 13/08 A3023 RMK A01 T01340082  RH  071%=      5-min Rain = 0
KTAS 100838Z 09005KT 13/08 A3023 RMK A01 T01340082  RH  071%=      5-min Rain = 0
KTAS 100839Z 09005KT 13/08 A3023 RMK A01 T01340082  RH  071%=      5-min Rain = 0
KTAS 100840Z 09005KT 13/08 A3023 RMK A01 T01340082  RH  071%=      5-min Rain = 0
KTAS 100841Z 09005KT 13/08 A3023 RMK A01 T01340082  RH  071%=      5-min Rain = 0
KTAS 100842Z 09005KT 13/08 A3023 RMK A01 T01340082  RH  071%=      5-min Rain = 0
KTAS 100843Z 09005KT 13/08 A3023 RMK A01 T01340082  RH  071%=      5-min Rain = 0
KTAS 100844Z 09005KT 13/08 A3022 RMK A01 T01340082  RH  071%=      5-min Rain = 0
KTAS 100845Z 09005KT 13/08 A3022 RMK A01 T01340082  RH  071%=      5-min Rain = 0
KTAS 100846Z 09005KT 13/08 A3022 RMK A01 T01340082  RH  071%=      5-min Rain = 0
KTAS 100847Z 09005KT 13/08 A3022 RMK A01 T01330082  RH  071%=      5-min Rain = 0
KTAS 100848Z 10005KT 13/08 A3022 RMK A01 T01330081  RH  071%=      5-min Rain = 0
KTAS 100849Z 10005KT 13/08 A3022 RMK A01 T01330081  RH  071%=      5-min Rain = 0
KTAS 100850Z 10005KT 13/08 A3022 RMK A01 T01320081  RH  071%=      5-min Rain = 0
KTAS 100851Z 10005KT 13/08 A3022 RMK A01 T01320081  RH  071%=      5-min Rain = 0
KTAS 100852Z 10005KT 13/08 A3022 RMK A01 T01310081  RH  071%=      5-min Rain = 0
KTAS 100853Z 11005KT 13/08 A3022 RMK A01 T01300080  RH  072%=      5-min Rain = 0
KTAS 100854Z 11005KT 13/08 A3022 RMK A01 T01300080  RH  072%=      5-min Rain = 0
KTAS 100855Z 11005KT 13/08 A3022 RMK A01 T01290079  RH  072%=      5-min Rain = 0
KTAS 100856Z 11005KT 13/08 A3022 RMK A01 T01290079  RH  072%=      5-min Rain = 0
KTAS 100857Z 11005KT 13/08 A3022 RMK A01 T01280079  RH  072%=      5-min Rain = 0
KTAS 100858Z 10004KT 13/08 A3022 RMK A01 T01280079  RH  072%=      5-min Rain = 0
KTAS 100859Z 10004KT 13/08 A3022 RMK A01 T01270079  RH  073%=      5-min Rain = 0
KTAS 100900Z 10004KT 13/08 A3022 RMK A01 T01270079  RH  073%=      5-min Rain = 0
KTAS 100901Z 10004KT 13/08 A3022 RMK A01 T01270079  RH  073%=      5-min Rain = 0
KTAS 100902Z 10004KT 13/08 A3022 RMK A01 T01270079  RH  073%=      5-min Rain = 0
KTAS 100903Z 09004KT 13/08 A3022 RMK A01 T01260079  RH  073%=      5-min Rain = 0
KTAS 100904Z 10004KT 13/08 A3022 RMK A01 T01260079  RH  073%=      5-min Rain = 0
KTAS 100905Z 10004KT 13/08 A3022 RMK A01 T01260078  RH  073%=      5-min Rain = 0
KTAS 100906Z 10003KT 13/08 A3022 RMK A01 T01260078  RH  073%=      5-min Rain = 0
KTAS 100907Z 10003KT 13/08 A3022 RMK A01 T01250078  RH  073%=      5-min Rain = 0
KTAS 100908Z 10003KT 13/08 A3022 RMK A01 T01250078  RH  073%=      5-min Rain = 0
KTAS 100909Z 10004KT 13/08 A3022 RMK A01 T01250079  RH  074%=      5-min Rain = 0
KTAS 100910Z 10004KT 12/08 A3022 RMK A01 T01240079  RH  074%=      5-min Rain = 0
KTAS 100911Z 10003KT 13/08 A3022 RMK A01 T01250080  RH  074%=      5-min Rain = 0
KTAS 100912Z 10003KT 13/08 A3022 RMK A01 T01250080  RH  074%=      5-min Rain = 0
KTAS 100913Z 10003KT 13/08 A3022 RMK A01 T01250079  RH  074%=      5-min Rain = 0
KTAS 100914Z 10003KT 13/08 A3022 RMK A01 T01250080  RH  074%=      5-min Rain = 0
KTAS 100915Z 10003KT 13/08 A3022 RMK A01 T01250080  RH  074%=      5-min Rain = 0
KTAS 100916Z 10003KT 13/08 A3022 RMK A01 T01250079  RH  074%=      5-min Rain = 0
KTAS 100917Z 10003KT 13/08 A3022 RMK A01 T01250079  RH  074%=      5-min Rain = 0
KTAS 100918Z 10003KT 13/08 A3022 RMK A01 T01250079  RH  074%=      5-min Rain = 0
KTAS 100919Z 10003KT 12/08 A3022 RMK A01 T01240078  RH  074%=      5-min Rain = 0
KTAS 100920Z 09003KT 12/08 A3022 RMK A01 T01240078  RH  074%=      5-min Rain = 0
KTAS 100921Z 10003KT 12/08 A3022 RMK A01 T01240078  RH  074%=      5-min Rain = 0
KTAS 100922Z 09003KT 12/08 A3022 RMK A01 T01230079  RH  074%=      5-min Rain = 0
KTAS 100923Z 09003KT 12/08 A3022 RMK A01 T01230079  RH  074%=      5-min Rain = 0
KTAS 100924Z 09003KT 12/08 A3022 RMK A01 T01230078  RH  074%=      5-min Rain = 0
KTAS 100925Z 09003KT 12/08 A3022 RMK A01 T01230079  RH  075%=      5-min Rain = 0
KTAS 100926Z 09003KT 12/08 A3022 RMK A01 T01230080  RH  075%=      5-min Rain = 0
KTAS 100927Z 09004KT 12/08 A3022 RMK A01 T01230080  RH  075%=      5-min Rain = 0
KTAS 100928Z 09004KT 12/08 A3022 RMK A01 T01230079  RH  074%=      5-min Rain = 0
KTAS 100929Z 10004KT 12/08 A3022 RMK A01 T01230079  RH  075%=      5-min Rain = 0
KTAS 100930Z 10004KT 12/08 A3022 RMK A01 T01230080  RH  075%=      5-min Rain = 0
KTAS 100931Z 11004KT 12/08 A3022 RMK A01 T01240080  RH  075%=      5-min Rain = 0
KTAS 100932Z 10004KT 13/08 A3022 RMK A01 T01250081  RH  074%=      5-min Rain = 0
KTAS 100933Z 10004KT 13/08 A3022 RMK A01 T01260080  RH  074%=      5-min Rain = 0
KTAS 100934Z 10004KT 13/08 A3022 RMK A01 T01260080  RH  074%=      5-min Rain = 0
KTAS 100935Z 10004KT 13/08 A3022 RMK A01 T01270081  RH  073%=      5-min Rain = 0
KTAS 100936Z 10004KT 13/08 A3022 RMK A01 T01280081  RH  073%=      5-min Rain = 0
KTAS 100937Z 10004KT 13/08 A3022 RMK A01 T01290081  RH  073%=      5-min Rain = 0
KTAS 100938Z 09004KT 13/08 A3022 RMK A01 T01290081  RH  073%=      5-min Rain = 0
KTAS 100939Z 09004KT 13/08 A3022 RMK A01 T01280080  RH  073%=      5-min Rain = 0
KTAS 100940Z 09004KT 13/08 A3022 RMK A01 T01270079  RH  073%=      5-min Rain = 0
KTAS 100941Z 09004KT 13/08 A3022 RMK A01 T01270079  RH  073%=      5-min Rain = 0
KTAS 100942Z 09004KT 13/08 A3022 RMK A01 T01260079  RH  073%=      5-min Rain = 0
KTAS 100943Z 09004KT 13/08 A3022 RMK A01 T01260080  RH  073%=      5-min Rain = 0
KTAS 100944Z 09005KT 13/08 A3022 RMK A01 T01260080  RH  074%=      5-min Rain = 0
KTAS 100945Z 09005KT 13/08 A3022 RMK A01 T01270081  RH  074%=      5-min Rain = 0
KTAS 100946Z 09005KT 13/08 A3022 RMK A01 T01270081  RH  073%=      5-min Rain = 0
KTAS 100947Z 09005KT 13/08 A3022 RMK A01 T01280081  RH  073%=      5-min Rain = 0
KTAS 100948Z 09005KT 13/08 A3022 RMK A01 T01290082  RH  073%=      5-min Rain = 0
KTAS 100949Z 10005KT 13/08 A3022 RMK A01 T01290082  RH  073%=      5-min Rain = 0
KTAS 100950Z 09005KT 13/08 A3022 RMK A01 T01290081  RH  073%=      5-min Rain = 0
KTAS 100951Z 09005KT 13/08 A3022 RMK A01 T01290081  RH  073%=      5-min Rain = 0
KTAS 100952Z 09005KT 13/08 A3022 RMK A01 T01290081  RH  073%=      5-min Rain = 0
KTAS 100953Z 09005KT 13/08 A3022 RMK A01 T01290082  RH  073%=      5-min Rain = 0
KTAS 100954Z 10005KT 13/08 A3022 RMK A01 T01290081  RH  073%=      5-min Rain = 0
KTAS 100955Z 10005KT 13/08 A3023 RMK A01 T01280081  RH  073%=      5-min Rain = 0
KTAS 100956Z 10005KT 13/08 A3023 RMK A01 T01280081  RH  073%=      5-min Rain = 0
KTAS 100957Z 10005KT 13/08 A3023 RMK A01 T01270081  RH  073%=      5-min Rain = 0
KTAS 100958Z 10005KT 13/08 A3023 RMK A01 T01270080  RH  073%=      5-min Rain = 0
KTAS 100959Z 10005KT 13/08 A3023 RMK A01 T01260080  RH  073%=      5-min Rain = 0
KTAS 101000Z 10005KT 13/08 A3023 RMK A01 T01260080  RH  073%=      5-min Rain = 0
KTAS 101001Z 10005KT 13/08 A3023 RMK A01 T01250079  RH  074%=      5-min Rain = 0
KTAS 101002Z 11005KT 13/08 A3023 RMK A01 T01250079  RH  074%=      5-min Rain = 0
KTAS 101003Z 11005KT 13/08 A3023 RMK A01 T01250079  RH  074%=      5-min Rain = 0
KTAS 101004Z 11005KT 13/08 A3023 RMK A01 T01250080  RH  074%=      5-min Rain = 0
KTAS 101005Z 11005KT 13/08 A3023 RMK A01 T01250080  RH  074%=      5-min Rain = 0
KTAS 101006Z 11005KT 12/08 A3023 RMK A01 T01240079  RH  074%=      5-min Rain = 0
KTAS 101007Z 12005KT 12/08 A3023 RMK A01 T01240079  RH  074%=      5-min Rain = 0
KTAS 101008Z 12005KT 12/08 A3023 RMK A01 T01240079  RH  074%=      5-min Rain = 0
KTAS 101009Z 12005KT 12/08 A3023 RMK A01 T01240079  RH  074%=      5-min Rain = 0
KTAS 101010Z 12005KT 12/08 A3023 RMK A01 T01240079  RH  074%=      5-min Rain = 0
KTAS 101011Z 12005KT 12/08 A3023 RMK A01 T01230079  RH  074%=      5-min Rain = 0
KTAS 101012Z 12005KT 12/08 A3023 RMK A01 T01230079  RH  074%=      5-min Rain = 0
KTAS 101013Z 13004KT 12/08 A3023 RMK A01 T01240080  RH  074%=      5-min Rain = 0
KTAS 101014Z 13004KT 12/08 A3023 RMK A01 T01240079  RH  074%=      5-min Rain = 0
KTAS 101015Z 13004KT 12/08 A3023 RMK A01 T01230079  RH  074%=      5-min Rain = 0
KTAS 101016Z 13004KT 12/08 A3023 RMK A01 T01240080  RH  075%=      5-min Rain = 0
KTAS 101017Z 13004KT 12/08 A3023 RMK A01 T01240079  RH  074%=      5-min Rain = 0
KTAS 101018Z 13004KT 12/08 A3023 RMK A01 T01240079  RH  074%=      5-min Rain = 0
KTAS 101019Z 13004KT 12/08 A3023 RMK A01 T01240079  RH  074%=      5-min Rain = 0
KTAS 101020Z 13004KT 12/08 A3023 RMK A01 T01240079  RH  074%=      5-min Rain = 0
KTAS 101021Z 12004KT 12/08 A3023 RMK A01 T01230079  RH  074%=      5-min Rain = 0
KTAS 101022Z 13004KT 12/08 A3023 RMK A01 T01230079  RH  074%=      5-min Rain = 0
KTAS 101023Z 13004KT 12/08 A3023 RMK A01 T01230079  RH  075%=      5-min Rain = 0
KTAS 101024Z 13004KT 12/08 A3023 RMK A01 T01230079  RH  075%=      5-min Rain = 0
KTAS 101025Z 13004KT 12/08 A3023 RMK A01 T01220079  RH  075%=      5-min Rain = 0
KTAS 101026Z 13004KT 12/08 A3023 RMK A01 T01220079  RH  075%=      5-min Rain = 0
KTAS 101027Z 13005KT 12/08 A3023 RMK A01 T01220079  RH  075%=      5-min Rain = 0
KTAS 101028Z 13004KT 12/08 A3023 RMK A01 T01220079  RH  075%=      5-min Rain = 0
KTAS 101029Z 13004KT 12/08 A3023 RMK A01 T01220079  RH  075%=      5-min Rain = 0
KTAS 101030Z 13004KT 12/08 A3023 RMK A01 T01230080  RH  075%=      5-min Rain = 0
KTAS 101031Z 13004KT 12/08 A3023 RMK A01 T01230081  RH  075%=      5-min Rain = 0
KTAS 101032Z 12004KT 12/08 A3023 RMK A01 T01240081  RH  075%=      5-min Rain = 0
KTAS 101033Z 12005KT 12/08 A3023 RMK A01 T01240082  RH  075%=      5-min Rain = 0
KTAS 101034Z 12004KT 13/08 A3023 RMK A01 T01250081  RH  075%=      5-min Rain = 0
KTAS 101035Z 12004KT 12/08 A3023 RMK A01 T01240080  RH  074%=      5-min Rain = 0
KTAS 101036Z 12004KT 12/08 A3023 RMK A01 T01240080  RH  075%=      5-min Rain = 0
KTAS 101037Z 13004KT 12/08 A3023 RMK A01 T01240080  RH  075%=      5-min Rain = 0
KTAS 101038Z 13004KT 12/08 A3023 RMK A01 T01230080  RH  075%=      5-min Rain = 0
KTAS 101039Z 13004KT 12/08 A3023 RMK A01 T01230081  RH  075%=      5-min Rain = 0
KTAS 101040Z 13004KT 12/08 A3023 RMK A01 T01230081  RH  075%=      5-min Rain = 0
KTAS 101041Z 13004KT 12/08 A3023 RMK A01 T01230081  RH  075%=      5-min Rain = 0
KTAS 101042Z 13004KT 12/08 A3023 RMK A01 T01230081  RH  076%=      5-min Rain = 0
KTAS 101043Z 13004KT 12/08 A3023 RMK A01 T01230081  RH  076%=      5-min Rain = 0
KTAS 101044Z 13004KT 12/08 A3023 RMK A01 T01240082  RH  076%=      5-min Rain = 0
KTAS 101045Z 13004KT 12/08 A3023 RMK A01 T01240082  RH  076%=      5-min Rain = 0
KTAS 101046Z 12004KT 12/08 A3023 RMK A01 T01240082  RH  075%=      5-min Rain = 0
KTAS 101047Z 12004KT 12/08 A3023 RMK A01 T01240081  RH  075%=      5-min Rain = 0
KTAS 101048Z 12004KT 12/08 A3023 RMK A01 T01230080  RH  075%=      5-min Rain = 0
KTAS 101049Z 12004KT 12/08 A3023 RMK A01 T01230079  RH  075%=      5-min Rain = 0
KTAS 101050Z 12004KT 12/08 A3023 RMK A01 T01220078  RH  075%=      5-min Rain = 0
KTAS 101051Z 12004KT 12/08 A3023 RMK A01 T01210078  RH  075%=      5-min Rain = 0
KTAS 101052Z 12004KT 12/08 A3023 RMK A01 T01200078  RH  076%=      5-min Rain = 0
KTAS 101053Z 11004KT 12/08 A3023 RMK A01 T01200079  RH  076%=      5-min Rain = 0
KTAS 101054Z 11004KT 12/08 A3023 RMK A01 T01200079  RH  076%=      5-min Rain = 0
KTAS 101055Z 11004KT 12/08 A3023 RMK A01 T01200080  RH  076%=      5-min Rain = 0
KTAS 101056Z 11004KT 12/08 A3023 RMK A01 T01200080  RH  076%=      5-min Rain = 0
KTAS 101057Z 11004KT 12/08 A3023 RMK A01 T01210081  RH  076%=      5-min Rain = 0
KTAS 101058Z 11004KT 12/08 A3023 RMK A01 T01210081  RH  077%=      5-min Rain = 0
KTAS 101059Z 12004KT 12/08 A3023 RMK A01 T01210081  RH  076%=      5-min Rain = 0
KTAS 101100Z 12004KT 12/08 A3023 RMK A01 T01220081  RH  076%=      5-min Rain = 0
KTAS 101101Z 12004KT 12/08 A3023 RMK A01 T01220081  RH  076%=      5-min Rain = 0
KTAS 101102Z 12004KT 12/08 A3023 RMK A01 T01210081  RH  076%=      5-min Rain = 0
KTAS 101103Z 12004KT 12/08 A3023 RMK A01 T01210081  RH  076%=      5-min Rain = 0
KTAS 101104Z 12004KT 12/08 A3024 RMK A01 T01210081  RH  076%=      5-min Rain = 0
KTAS 101105Z 11004KT 12/08 A3024 RMK A01 T01210081  RH  076%=      5-min Rain = 0
KTAS 101106Z 11004KT 12/08 A3024 RMK A01 T01210081  RH  077%=      5-min Rain = 0
KTAS 101107Z 11004KT 12/08 A3024 RMK A01 T01200080  RH  076%=      5-min Rain = 0
KTAS 101108Z 10004KT 12/08 A3024 RMK A01 T01190078  RH  076%=      5-min Rain = 0
KTAS 101109Z 10004KT 12/08 A3024 RMK A01 T01170077  RH  077%=      5-min Rain = 0
KTAS 101110Z 11004KT 12/08 A3024 RMK A01 T01150076  RH  076%=      5-min Rain = 0
KTAS 101111Z 11004KT 11/07 A3024 RMK A01 T01140074  RH  076%=      5-min Rain = 0
KTAS 101112Z 11004KT 11/07 A3024 RMK A01 T01130073  RH  077%=      5-min Rain = 0
KTAS 101113Z 11004KT 11/07 A3024 RMK A01 T01120073  RH  077%=      5-min Rain = 0
KTAS 101114Z 10003KT 11/07 A3024 RMK A01 T01110072  RH  077%=      5-min Rain = 0
KTAS 101115Z 10003KT 11/07 A3024 RMK A01 T01100071  RH  077%=      5-min Rain = 0
KTAS 101116Z 10003KT 11/07 A3024 RMK A01 T01090072  RH  078%=      5-min Rain = 0
KTAS 101117Z 11003KT 11/07 A3024 RMK A01 T01090073  RH  078%=      5-min Rain = 0
KTAS 101118Z 11003KT 11/07 A3024 RMK A01 T01090074  RH  079%=      5-min Rain = 0
KTAS 101119Z 11003KT 11/08 A3024 RMK A01 T01090076  RH  080%=      5-min Rain = 0
KTAS 101120Z 12003KT 11/08 A3024 RMK A01 T01100077  RH  080%=      5-min Rain = 0
KTAS 101121Z 12003KT 11/08 A3024 RMK A01 T01110079  RH  080%=      5-min Rain = 0
KTAS 101122Z 12003KT 11/08 A3024 RMK A01 T01120080  RH  080%=      5-min Rain = 0
KTAS 101123Z 11003KT 11/08 A3024 RMK A01 T01130080  RH  080%=      5-min Rain = 0
KTAS 101124Z 11003KT 11/08 A3024 RMK A01 T01130080  RH  080%=      5-min Rain = 0
KTAS 101125Z 11003KT 11/08 A3024 RMK A01 T01140080  RH  080%=      5-min Rain = 0
KTAS 101126Z 11003KT 11/08 A3024 RMK A01 T01130080  RH  080%=      5-min Rain = 0
KTAS 101127Z 11003KT 11/08 A3024 RMK A01 T01130079  RH  080%=      5-min Rain = 0
KTAS 101128Z 11003KT 11/08 A3024 RMK A01 T01120079  RH  080%=      5-min Rain = 0
KTAS 101129Z 11003KT 11/08 A3024 RMK A01 T01120080  RH  080%=      5-min Rain = 0
KTAS 101130Z 10003KT 11/08 A3024 RMK A01 T01130081  RH  081%=      5-min Rain = 0
KTAS 101131Z 10003KT 11/08 A3024 RMK A01 T01130081  RH  081%=      5-min Rain = 0
KTAS 101132Z 10003KT 11/08 A3024 RMK A01 T01130081  RH  081%=      5-min Rain = 0
KTAS 101133Z 10003KT 11/08 A3024 RMK A01 T01120080  RH  081%=      5-min Rain = 0
KTAS 101134Z 10003KT 11/08 A3024 RMK A01 T01120080  RH  081%=      5-min Rain = 0
KTAS 101135Z 10003KT 11/08 A3024 RMK A01 T01110079  RH  081%=      5-min Rain = 0
KTAS 101136Z 10003KT 11/08 A3024 RMK A01 T01110079  RH  081%=      5-min Rain = 0
KTAS 101137Z 09004KT 11/08 A3024 RMK A01 T01100078  RH  081%=      5-min Rain = 0
KTAS 101138Z 09004KT 11/08 A3024 RMK A01 T01090077  RH  081%=      5-min Rain = 0
KTAS 101139Z 09004KT 11/08 A3024 RMK A01 T01090077  RH  081%=      5-min Rain = 0
KTAS 101140Z 09004KT 11/08 A3024 RMK A01 T01080077  RH  081%=      5-min Rain = 0
KTAS 101141Z 09004KT 11/08 A3024 RMK A01 T01080077  RH  081%=      5-min Rain = 0
KTAS 101142Z 09004KT 11/08 A3024 RMK A01 T01080078  RH  082%=      5-min Rain = 0
KTAS 101143Z 09004KT 11/08 A3024 RMK A01 T01090080  RH  082%=      5-min Rain = 0
KTAS 101144Z 09005KT 11/08 A3024 RMK A01 T01100080  RH  082%=      5-min Rain = 0
KTAS 101145Z 09005KT 11/08 A3024 RMK A01 T01100080  RH  082%=      5-min Rain = 0
KTAS 101146Z 09005KT 11/08 A3024 RMK A01 T01110081  RH  082%=      5-min Rain = 0
KTAS 101147Z 09005KT 11/08 A3024 RMK A01 T01120082  RH  082%=      5-min Rain = 0
KTAS 101148Z 09005KT 11/08 A3024 RMK A01 T01140083  RH  081%=      5-min Rain = 0
KTAS 101149Z 09005KT 12/08 A3024 RMK A01 T01150083  RH  081%=      5-min Rain = 0
KTAS 101150Z 09005KT 12/08 A3024 RMK A01 T01160082  RH  080%=      5-min Rain = 0
KTAS 101151Z 08005KT 12/08 A3024 RMK A01 T01160082  RH  080%=      5-min Rain = 0
KTAS 101152Z 08005KT 12/08 A3024 RMK A01 T01160082  RH  080%=      5-min Rain = 0
KTAS 101153Z 08005KT 12/08 A3024 RMK A01 T01150081  RH  080%=      5-min Rain = 0
KTAS 101154Z 08005KT 12/08 A3024 RMK A01 T01150082  RH  080%=      5-min Rain = 0
KTAS 101155Z 08005KT 12/08 A3024 RMK A01 T01150081  RH  080%=      5-min Rain = 0
KTAS 101156Z 08005KT 12/08 A3024 RMK A01 T01150082  RH  080%=      5-min Rain = 0
KTAS 101157Z 08005KT 11/08 A3024 RMK A01 T01140082  RH  080%=      5-min Rain = 0
KTAS 101158Z 08005KT 11/08 A3024 RMK A01 T01140082  RH  080%=      5-min Rain = 0
KTAS 101159Z 08005KT 12/08 A3024 RMK A01 T01150082  RH  080%=      5-min Rain = 0
KTAS 101200Z 08005KT 12/08 A3024 RMK A01 T01150082  RH  080%=      5-min Rain = 0
KTAS 101201Z 08005KT 12/08 A3024 RMK A01 T01150082  RH  080%=      5-min Rain = 0
KTAS 101202Z 08005KT 12/08 A3024 RMK A01 T01150081  RH  080%=      5-min Rain = 0
KTAS 101203Z 09005KT 12/08 A3024 RMK A01 T01150081  RH  080%=      5-min Rain = 0
KTAS 101204Z 09005KT 11/08 A3024 RMK A01 T01140081  RH  080%=      5-min Rain = 0
KTAS 101205Z 09005KT 11/08 A3024 RMK A01 T01140080  RH  080%=      5-min Rain = 0
KTAS 101206Z 09004KT 11/08 A3024 RMK A01 T01140081  RH  080%=      5-min Rain = 0
KTAS 101207Z 10005KT 11/08 A3025 RMK A01 T01140081  RH  080%=      5-min Rain = 0
KTAS 101208Z 10005KT 11/08 A3025 RMK A01 T01140081  RH  080%=      5-min Rain = 0
KTAS 101209Z 10004KT 11/08 A3025 RMK A01 T01140081  RH  080%=      5-min Rain = 0
KTAS 101210Z 10004KT 11/08 A3025 RMK A01 T01140081  RH  080%=      5-min Rain = 0
KTAS 101211Z 10005KT 11/08 A3025 RMK A01 T01140081  RH  080%=      5-min Rain = 0
KTAS 101212Z 10005KT 11/08 A3025 RMK A01 T01140081  RH  080%=      5-min Rain = 0
KTAS 101213Z 11005KT 11/08 A3025 RMK A01 T01130081  RH  080%=      5-min Rain = 0
KTAS 101214Z 11005KT 11/08 A3025 RMK A01 T01130080  RH  080%=      5-min Rain = 0
KTAS 101215Z 11005KT 11/08 A3025 RMK A01 T01130080  RH  080%=      5-min Rain = 0
KTAS 101216Z 11004KT 11/08 A3025 RMK A01 T01120079  RH  080%=      5-min Rain = 0
KTAS 101217Z 11004KT 11/08 A3025 RMK A01 T01120079  RH  080%=      5-min Rain = 0
KTAS 101218Z 10004KT 11/08 A3025 RMK A01 T01120080  RH  080%=      5-min Rain = 0
KTAS 101219Z 10004KT 11/08 A3025 RMK A01 T01120080  RH  081%=      5-min Rain = 0
KTAS 101220Z 10004KT 11/08 A3025 RMK A01 T01120080  RH  081%=      5-min Rain = 0
KTAS 101221Z 10004KT 11/08 A3025 RMK A01 T01120081  RH  081%=      5-min Rain = 0
KTAS 101222Z 10004KT 11/08 A3025 RMK A01 T01130082  RH  081%=      5-min Rain = 0
KTAS 101223Z 10004KT 11/08 A3025 RMK A01 T01130082  RH  081%=      5-min Rain = 0
KTAS 101224Z 09004KT 11/08 A3025 RMK A01 T01130082  RH  081%=      5-min Rain = 0
KTAS 101225Z 09005KT 11/08 A3025 RMK A01 T01140082  RH  081%=      5-min Rain = 0
KTAS 101226Z 09005KT 11/08 A3025 RMK A01 T01140081  RH  080%=      5-min Rain = 0
KTAS 101227Z 09005KT 11/08 A3025 RMK A01 T01130081  RH  080%=      5-min Rain = 0
KTAS 101228Z 09005KT 11/08 A3025 RMK A01 T01130081  RH  080%=      5-min Rain = 0
KTAS 101229Z 09005KT 11/08 A3025 RMK A01 T01130081  RH  081%=      5-min Rain = 0
KTAS 101230Z 09005KT 11/08 A3025 RMK A01 T01140082  RH  081%=      5-min Rain = 0
KTAS 101231Z 09005KT 12/08 A3025 RMK A01 T01150083  RH  081%=      5-min Rain = 0
KTAS 101232Z 09005KT 12/08 A3025 RMK A01 T01150083  RH  081%=      5-min Rain = 0
KTAS 101233Z 09004KT 12/08 A3025 RMK A01 T01150083  RH  081%=      5-min Rain = 0
KTAS 101234Z 09004KT 12/08 A3025 RMK A01 T01150083  RH  080%=      5-min Rain = 0
KTAS 101235Z 09004KT 12/08 A3025 RMK A01 T01150083  RH  080%=      5-min Rain = 0
KTAS 101236Z 09004KT 12/08 A3025 RMK A01 T01160083  RH  080%=      5-min Rain = 0
KTAS 101237Z 09005KT 12/08 A3025 RMK A01 T01150083  RH  080%=      5-min Rain = 0
KTAS 101238Z 09005KT 12/08 A3025 RMK A01 T01150082  RH  080%=      5-min Rain = 0
KTAS 101239Z 09005KT 12/08 A3025 RMK A01 T01150082  RH  080%=      5-min Rain = 0
KTAS 101240Z 09004KT 11/08 A3025 RMK A01 T01140082  RH  081%=      5-min Rain = 0
KTAS 101241Z 09004KT 11/08 A3025 RMK A01 T01140082  RH  081%=      5-min Rain = 0
KTAS 101242Z 09004KT 11/08 A3025 RMK A01 T01140082  RH  081%=      5-min Rain = 0
KTAS 101243Z 09004KT 11/08 A3026 RMK A01 T01130082  RH  081%=      5-min Rain = 0
KTAS 101244Z 08005KT 11/08 A3026 RMK A01 T01130081  RH  081%=      5-min Rain = 0
KTAS 101245Z 08005KT 11/08 A3026 RMK A01 T01130081  RH  081%=      5-min Rain = 0
KTAS 101246Z 08005KT 11/08 A3026 RMK A01 T01130081  RH  081%=      5-min Rain = 0
KTAS 101247Z 08004KT 11/08 A3026 RMK A01 T01130082  RH  081%=      5-min Rain = 0
KTAS 101248Z 08004KT 11/08 A3026 RMK A01 T01130083  RH  081%=      5-min Rain = 0
KTAS 101249Z 08005KT 11/08 A3026 RMK A01 T01140082  RH  081%=      5-min Rain = 0
KTAS 101250Z 08005KT 11/08 A3026 RMK A01 T01140083  RH  081%=      5-min Rain = 0
KTAS 101251Z 08004KT 11/08 A3026 RMK A01 T01140083  RH  081%=      5-min Rain = 0
KTAS 101252Z 08004KT 12/08 A3026 RMK A01 T01150083  RH  081%=      5-min Rain = 0
KTAS 101253Z 08004KT 12/08 A3026 RMK A01 T01150083  RH  081%=      5-min Rain = 0
KTAS 101254Z 08005KT 12/08 A3026 RMK A01 T01160084  RH  081%=      5-min Rain = 0
KTAS 101255Z 08004KT 12/08 A3026 RMK A01 T01170084  RH  080%=      5-min Rain = 0
KTAS 101256Z 07004KT 12/08 A3026 RMK A01 T01170084  RH  080%=      5-min Rain = 0
KTAS 101257Z 07004KT 12/08 A3026 RMK A01 T01170084  RH  080%=      5-min Rain = 0
KTAS 101258Z 07004KT 12/08 A3026 RMK A01 T01170084  RH  080%=      5-min Rain = 0
KTAS 101259Z 07004KT 12/09 A3026 RMK A01 T01180086  RH  081%=      5-min Rain = 0
KTAS 101300Z 07004KT 12/09 A3026 RMK A01 T01190087  RH  081%=      5-min Rain = 0
KTAS 101301Z 07004KT 12/09 A3026 RMK A01 T01190087  RH  081%=      5-min Rain = 0
KTAS 101302Z 08004KT 12/09 A3026 RMK A01 T01210088  RH  080%=      5-min Rain = 0
KTAS 101303Z 08003KT 12/09 A3026 RMK A01 T01220089  RH  080%=      5-min Rain = 0
KTAS 101304Z 09003KT 12/09 A3026 RMK A01 T01230089  RH  080%=      5-min Rain = 0
KTAS 101305Z 08003KT 13/09 A3026 RMK A01 T01250090  RH  080%=      5-min Rain = 0
KTAS 101306Z 09003KT 13/09 A3026 RMK A01 T01260091  RH  079%=      5-min Rain = 0
KTAS 101307Z 09003KT 13/09 A3026 RMK A01 T01270091  RH  079%=      5-min Rain = 0
KTAS 101308Z 08003KT 13/09 A3026 RMK A01 T01280091  RH  078%=      5-min Rain = 0
KTAS 101309Z 09003KT 13/09 A3026 RMK A01 T01290092  RH  078%=      5-min Rain = 0
KTAS 101310Z 08003KT 13/09 A3026 RMK A01 T01300092  RH  078%=      5-min Rain = 0
KTAS 101311Z 08003KT 13/09 A3026 RMK A01 T01310092  RH  077%=      5-min Rain = 0
KTAS 101312Z 08003KT 13/09 A3027 RMK A01 T01320093  RH  077%=      5-min Rain = 0
KTAS 101313Z 08003KT 13/09 A3027 RMK A01 T01330094  RH  077%=      5-min Rain = 0
KTAS 101314Z 09003KT 13/10 A3027 RMK A01 T01340095  RH  077%=      5-min Rain = 0
KTAS 101315Z 10003KT 14/10 A3027 RMK A01 T01360095  RH  076%=      5-min Rain = 0
KTAS 101316Z 10003KT 14/10 A3027 RMK A01 T01370096  RH  076%=      5-min Rain = 0
KTAS 101317Z 10003KT 14/10 A3027 RMK A01 T01390096  RH  075%=      5-min Rain = 0
KTAS 101318Z 10003KT 14/10 A3027 RMK A01 T01400096  RH  075%=      5-min Rain = 0
KTAS 101319Z 10003KT 14/10 A3027 RMK A01 T01410097  RH  074%=      5-min Rain = 0
KTAS 101320Z 11003KT 14/10 A3027 RMK A01 T01420096  RH  074%=      5-min Rain = 0
KTAS 101321Z 11003KT 14/10 A3027 RMK A01 T01420096  RH  074%=      5-min Rain = 0
KTAS 101322Z 11003KT 14/10 A3027 RMK A01 T01430096  RH  073%=      5-min Rain = 0
KTAS 101323Z 11004KT 14/10 A3027 RMK A01 T01430097  RH  074%=      5-min Rain = 0
KTAS 101324Z 12004KT 14/10 A3027 RMK A01 T01440096  RH  073%=      5-min Rain = 0
KTAS 101325Z 12004KT 14/10 A3027 RMK A01 T01440096  RH  073%=      5-min Rain = 0
KTAS 101326Z 12003KT 15/10 A3027 RMK A01 T01450097  RH  073%=      5-min Rain = 0
KTAS 101327Z 11003KT 15/10 A3027 RMK A01 T01450097  RH  073%=      5-min Rain = 0
KTAS 101328Z 11003KT 15/10 A3027 RMK A01 T01460097  RH  072%=      5-min Rain = 0
KTAS 101329Z 11004KT 15/10 A3027 RMK A01 T01470098  RH  073%=      5-min Rain = 0
KTAS 101330Z 11004KT 15/10 A3027 RMK A01 T01470097  RH  072%=      5-min Rain = 0
KTAS 101331Z 11003KT 15/10 A3027 RMK A01 T01480099  RH  072%=      5-min Rain = 0
KTAS 101332Z 10003KT 15/10 A3027 RMK A01 T01490100  RH  072%=      5-min Rain = 0
KTAS 101333Z 11003KT 15/10 A3027 RMK A01 T01500100  RH  072%=      5-min Rain = 0
KTAS 101334Z 11003KT 15/10 A3027 RMK A01 T01510101  RH  072%=      5-min Rain = 0
KTAS 101335Z 10002KT 15/10 A3027 RMK A01 T01520102  RH  072%=      5-min Rain = 0
KTAS 101336Z 11002KT 15/10 A3027 RMK A01 T01540103  RH  072%=      5-min Rain = 0
KTAS 101337Z 10002KT 16/10 A3027 RMK A01 T01560104  RH  071%=      5-min Rain = 0
KTAS 101338Z 11003KT 16/11 A3027 RMK A01 T01570105  RH  071%=      5-min Rain = 0
KTAS 101339Z 11003KT 16/10 A3027 RMK A01 T01590104  RH  070%=      5-min Rain = 0
KTAS 101340Z 11003KT 16/10 A3027 RMK A01 T01600104  RH  069%=      5-min Rain = 0
KTAS 101341Z 11002KT 16/11 A3027 RMK A01 T01620105  RH  069%=      5-min Rain = 0
KTAS 101342Z 11003KT 16/11 A3027 RMK A01 T01640107  RH  069%=      5-min Rain = 0
KTAS 101343Z 11004KT 17/10 A3027 RMK A01 T01650104  RH  067%=      5-min Rain = 0
KTAS 101344Z 11004KT 17/10 A3027 RMK A01 T01660103  RH  066%=      5-min Rain = 0
KTAS 101345Z 10002KT 17/10 A3027 RMK A01 T01670104  RH  067%=      5-min Rain = 0
KTAS 101346Z 11003KT 17/11 A3027 RMK A01 T01680105  RH  066%=      5-min Rain = 0
KTAS 101347Z 12003KT 17/10 A3027 RMK A01 T01700104  RH  065%=      5-min Rain = 0
KTAS 101348Z 12004KT 17/10 A3027 RMK A01 T01700103  RH  064%=      5-min Rain = 0
KTAS 101349Z 12003KT 17/10 A3027 RMK A01 T01690101  RH  064%=      5-min Rain = 0
KTAS 101350Z 13003KT 17/10 A3027 RMK A01 T01700102  RH  064%=      5-min Rain = 0
KTAS 101351Z 11004KT 17/10 A3027 RMK A01 T01710103  RH  064%=      5-min Rain = 0
KTAS 101352Z 12004KT 17/10 A3027 RMK A01 T01710102  RH  064%=      5-min Rain = 0
KTAS 101353Z 11004KT 17/10 A3027 RMK A01 T01720102  RH  063%=      5-min Rain = 0
KTAS 101354Z 12003KT 17/10 A3027 RMK A01 T01730103  RH  064%=      5-min Rain = 0
KTAS 101355Z 11004KT 17/10 A3027 RMK A01 T01740102  RH  063%=      5-min Rain = 0
KTAS 101356Z 11005KT 17/10 A3027 RMK A01 T01740101  RH  062%=      5-min Rain = 0
KTAS 101357Z 12005KT 18/10 A3027 RMK A01 T01750101  RH  062%=      5-min Rain = 0
KTAS 101358Z 12005KT 17/10 A3027 RMK A01 T01740099  RH  061%=      5-min Rain = 0
KTAS 101359Z 12004KT 18/10 A3027 RMK A01 T01750101  RH  062%=      5-min Rain = 0
KTAS 101400Z 11004KT 18/10 A3027 RMK A01 T01760101  RH  062%=      5-min Rain = 0
KTAS 101401Z 12005KT 18/10 A3027 RMK A01 T01760100  RH  061%=      5-min Rain = 0
KTAS 101402Z 12005KT 18/10 A3027 RMK A01 T01760099  RH  061%=      5-min Rain = 0
KTAS 101403Z 12005KT 18/10 A3027 RMK A01 T01760100  RH  061%=      5-min Rain = 0
KTAS 101404Z 12004KT 18/10 A3027 RMK A01 T01770100  RH  061%=      5-min Rain = 0
KTAS 101405Z 13004KT 18/10 A3027 RMK A01 T01780101  RH  061%=      5-min Rain = 0
KTAS 101406Z 13005KT 18/10 A3027 RMK A01 T01780101  RH  060%=      5-min Rain = 0
KTAS 101407Z 12005KT 18/10 A3027 RMK A01 T01790101  RH  060%=      5-min Rain = 0
KTAS 101408Z 12005KT 18/10 A3027 RMK A01 T01800100  RH  060%=      5-min Rain = 0
KTAS 101409Z 13005KT 18/10 A3027 RMK A01 T01790099  RH  059%=      5-min Rain = 0
KTAS 101410Z 13005KT 18/10 A3027 RMK A01 T01790099  RH  059%=      5-min Rain = 0
KTAS 101411Z 13003KT 18/10 A3027 RMK A01 T01790100  RH  060%=      5-min Rain = 0
KTAS 101412Z 12003KT 18/10 A3027 RMK A01 T01810102  RH  060%=      5-min Rain = 0
KTAS 101413Z 13003KT 18/10 A3027 RMK A01 T01820102  RH  059%=      5-min Rain = 0
KTAS 101414Z 13004KT 18/10 A3027 RMK A01 T01830100  RH  059%=      5-min Rain = 0
KTAS 101415Z 12005KT 18/10 A3027 RMK A01 T01830100  RH  059%=      5-min Rain = 0
KTAS 101421Z 13004KT 19/10 A3028 RMK A01 T01860101  RH  058%=      5-min Rain = 0
KTAS 101422Z 12004KT 19/10 A3028 RMK A01 T01860101  RH  057%=      5-min Rain = 0
KTAS 101423Z 11005KT 19/10 A3028 RMK A01 T01860100  RH  057%=      5-min Rain = 0
KTAS 101424Z 11004KT 19/10 A3028 RMK A01 T01860100  RH  057%=      5-min Rain = 0
KTAS 101425Z 12005KT 19/10 A3028 RMK A01 T01860101  RH  057%=      5-min Rain = 0
KTAS 101426Z 12004KT 19/10 A3028 RMK A01 T01880102  RH  058%=      5-min Rain = 0
KTAS 101427Z 12005KT 19/10 A3028 RMK A01 T01890102  RH  057%=      5-min Rain = 0
KTAS 101428Z 12005KT 19/10 A3028 RMK A01 T01900102  RH  057%=      5-min Rain = 0
KTAS 101429Z 13005KT 19/10 A3028 RMK A01 T01910101  RH  056%=      5-min Rain = 0
KTAS 101430Z 14005KT 19/10 A3028 RMK A01 T01900100  RH  056%=      5-min Rain = 0
KTAS 101431Z 14004KT 19/10 A3028 RMK A01 T01900101  RH  056%=      5-min Rain = 0
KTAS 101432Z 12003KT 19/10 A3028 RMK A01 T01910103  RH  057%=      5-min Rain = 0
KTAS 101433Z 12005KT 19/10 A3028 RMK A01 T01930103  RH  056%=      5-min Rain = 0
KTAS 101434Z 12004KT 19/10 A3028 RMK A01 T01930102  RH  056%=      5-min Rain = 0
KTAS 101435Z 11005KT 19/10 A3028 RMK A01 T01930102  RH  055%=      5-min Rain = 0
KTAS 101436Z 13004KT 19/10 A3028 RMK A01 T01930101  RH  055%=      5-min Rain = 0
KTAS 101437Z 11005KT 19/10 A3028 RMK A01 T01930103  RH  056%=      5-min Rain = 0
KTAS 101438Z 12003KT 20/10 A3028 RMK A01 T01950102  RH  055%=      5-min Rain = 0
KTAS 101439Z 13004KT 20/10 A3028 RMK A01 T01950102  RH  055%=      5-min Rain = 0
KTAS 101440Z 13004KT 20/10 A3028 RMK A01 T01950104  RH  055%=      5-min Rain = 0
KTAS 101441Z 15003KT 20/10 A3028 RMK A01 T01970103  RH  055%=      5-min Rain = 0
KTAS 101442Z 16003KT 20/10 A3028 RMK A01 T01970102  RH  054%=      5-min Rain = 0
KTAS 101443Z 15004KT 20/10 A3028 RMK A01 T01980103  RH  054%=      5-min Rain = 0
KTAS 101444Z 14005KT 20/10 A3028 RMK A01 T01980100  RH  053%=      5-min Rain = 0
KTAS 101445Z 16004KT 20/10 A3028 RMK A01 T01980102  RH  054%=      5-min Rain = 0
KTAS 101446Z 13004KT 20/10 A3028 RMK A01 T02010104  RH  054%=      5-min Rain = 0
KTAS 101447Z 12003KT 20/10 A3028 RMK A01 T02010101  RH  052%=      5-min Rain = 0
KTAS 101448Z 14005KT 20/10 A3028 RMK A01 T02020102  RH  053%=      5-min Rain = 0
KTAS 101449Z 14005KT 20/10 A3028 RMK A01 T02030101  RH  052%=      5-min Rain = 0
KTAS 101450Z 15004KT 20/10 A3028 RMK A01 T02040103  RH  052%=      5-min Rain = 0
KTAS 101451Z 15005KT 21/10 A3028 RMK A01 T02050100  RH  051%=      5-min Rain = 0
KTAS 101452Z 15005KT 20/10 A3028 RMK A01 T02020101  RH  052%=      5-min Rain = 0
KTAS 101453Z 15006KT 20/10 A3028 RMK A01 T02020101  RH  052%=      5-min Rain = 0
KTAS 101454Z 13006KT 20/10 A3028 RMK A01 T02020102  RH  052%=      5-min Rain = 0
KTAS 101455Z 14005KT 20/10 A3028 RMK A01 T02020101  RH  052%=      5-min Rain = 0
KTAS 101456Z 14005KT 20/10 A3028 RMK A01 T02030102  RH  052%=      5-min Rain = 0
KTAS 101457Z 15004KT 20/10 A3028 RMK A01 T02040103  RH  052%=      5-min Rain = 0
KTAS 101458Z 13005KT 21/10 A3028 RMK A01 T02050102  RH  052%=      5-min Rain = 0
KTAS 101459Z 13005KT 21/10 A3028 RMK A01 T02060103  RH  052%=      5-min Rain = 0
KTAS 101500Z 14005KT 21/10 A3028 RMK A01 T02070103  RH  051%=      5-min Rain = 0
KTAS 101501Z 14005KT 21/10 A3028 RMK A01 T02070103  RH  051%=      5-min Rain = 0
KTAS 101502Z 15004KT 21/10 A3028 RMK A01 T02060102  RH  051%=      5-min Rain = 0
KTAS 101503Z 14005KT 21/10 A3028 RMK A01 T02070104  RH  052%=      5-min Rain = 0
KTAS 101504Z 15006KT 21/10 A3028 RMK A01 T02070102  RH  051%=      5-min Rain = 0
KTAS 101505Z 14006KT 21/11 A3028 RMK A01 T02080105  RH  052%=      5-min Rain = 0
KTAS 101506Z 16005KT 21/10 A3028 RMK A01 T02100104  RH  050%=      5-min Rain = 0
KTAS 101507Z 15005KT 21/10 A3028 RMK A01 T02110103  RH  050%=      5-min Rain = 0
KTAS 101508Z 16006KT 21/10 A3028 RMK A01 T02110103  RH  050%=      5-min Rain = 0
KTAS 101509Z 15006KT 21/10 A3028 RMK A01 T02120102  RH  049%=      5-min Rain = 0
KTAS 101510Z 15006KT 21/10 A3028 RMK A01 T02120102  RH  049%=      5-min Rain = 0
KTAS 101511Z 16006KT 21/10 A3028 RMK A01 T02120102  RH  049%=      5-min Rain = 0
KTAS 101512Z 17006KT 21/10 A3028 RMK A01 T02120102  RH  049%=      5-min Rain = 0
KTAS 101513Z 16008KT 21/10 A3028 RMK A01 T02120102  RH  049%=      5-min Rain = 0
KTAS 101514Z 15005KT 21/10 A3028 RMK A01 T02120100  RH  049%=      5-min Rain = 0
KTAS 101515Z 15005KT 21/10 A3028 RMK A01 T02130101  RH  049%=      5-min Rain = 0
KTAS 101516Z 15005KT 22/10 A3028 RMK A01 T02150104  RH  049%=      5-min Rain = 0
KTAS 101517Z 15007KT 22/10 A3028 RMK A01 T02180101  RH  047%=      5-min Rain = 0
KTAS 101518Z 15005KT 22/10 A3029 RMK A01 T02180100  RH  047%=      5-min Rain = 0
KTAS 101519Z 15006KT 22/10 A3029 RMK A01 T02170100  RH  047%=      5-min Rain = 0
KTAS 101520Z 15005KT 22/10 A3029 RMK A01 T02170100  RH  047%=      5-min Rain = 0
KTAS 101521Z 17006KT 22/10 A3029 RMK A01 T02180102  RH  047%=      5-min Rain = 0
KTAS 101522Z 16007KT 22/10 A3029 RMK A01 T02200101  RH  047%=      5-min Rain = 0
KTAS 101523Z 17006KT 22/10 A3029 RMK A01 T02200099  RH  046%=      5-min Rain = 0
KTAS 101524Z 16005KT 22/10 A3029 RMK A01 T02180101  RH  047%=      5-min Rain = 0
KTAS 101525Z 15005KT 22/10 A3029 RMK A01 T02180102  RH  048%=      5-min Rain = 0
KTAS 101526Z 16006KT 22/10 A3029 RMK A01 T02200103  RH  047%=      5-min Rain = 0
KTAS 101527Z 16006KT 22/10 A3029 RMK A01 T02220102  RH  047%=      5-min Rain = 0
KTAS 101528Z 14005KT 22/10 A3029 RMK A01 T02220103  RH  047%=      5-min Rain = 0
KTAS 101529Z 15007KT 22/10 A3029 RMK A01 T02240103  RH  046%=      5-min Rain = 0
KTAS 101530Z 16005KT 23/10 A3029 RMK A01 T02250101  RH  045%=      5-min Rain = 0
KTAS 101531Z 17007KT 23/10 A3029 RMK A01 T02250100  RH  045%=      5-min Rain = 0
KTAS 101532Z 18007KT 22/10 A3029 RMK A01 T02210098  RH  046%=      5-min Rain = 0
KTAS 101533Z 17005KT 22/10 A3029 RMK A01 T02190099  RH  046%=      5-min Rain = 0
KTAS 101534Z 16004KT 22/10 A3029 RMK A01 T02190100  RH  047%=      5-min Rain = 0
KTAS 101535Z 15004KT 22/10 A3029 RMK A01 T02200100  RH  046%=      5-min Rain = 0
KTAS 101536Z 14005G10KT 22/10 A3029 RMK A01 T02190100  RH  047%=      5-min Rain = 0
KTAS 101537Z 16008KT 22/10 A3029 RMK A01 T02210099  RH  046%=      5-min Rain = 0
KTAS 101538Z 17006KT 22/10 A3029 RMK A01 T02230099  RH  045%=      5-min Rain = 0
KTAS 101539Z 17006KT 22/10 A3029 RMK A01 T02210098  RH  046%=      5-min Rain = 0
KTAS 101540Z 16006KT 22/10 A3029 RMK A01 T02190100  RH  046%=      5-min Rain = 0
KTAS 101541Z 13008KT 22/10 A3029 RMK A01 T02210101  RH  046%=      5-min Rain = 0
KTAS 101542Z 13008KT 22/10 A3029 RMK A01 T02230101  RH  046%=      5-min Rain = 0
KTAS 101543Z 13006KT 23/10 A3029 RMK A01 T02250101  RH  045%=      5-min Rain = 0
KTAS 101544Z 13005KT 23/10 A3029 RMK A01 T02280103  RH  045%=      5-min Rain = 0
KTAS 101545Z 15006KT 23/10 A3029 RMK A01 T02290101  RH  044%=      5-min Rain = 0
KTAS 101546Z 16007KT 23/10 A3029 RMK A01 T02290102  RH  044%=      5-min Rain = 0
KTAS 101547Z 17005KT 23/10 A3029 RMK A01 T02290099  RH  044%=      5-min Rain = 0
KTAS 101548Z 14005KT 23/10 A3029 RMK A01 T02260100  RH  045%=      5-min Rain = 0
KTAS 101549Z 13005KT 23/10 A3029 RMK A01 T02250099  RH  045%=      5-min Rain = 0
KTAS 101550Z 16004KT 23/10 A3029 RMK A01 T02270101  RH  045%=      5-min Rain = 0
KTAS 101551Z 15007KT 23/10 A3029 RMK A01 T02280101  RH  044%=      5-min Rain = 0
KTAS 101552Z 16007KT 23/10 A3029 RMK A01 T02290098  RH  043%=      5-min Rain = 0
KTAS 101553Z 17008KT 23/10 A3029 RMK A01 T02290097  RH  043%=      5-min Rain = 0
KTAS 101554Z 16008KT 23/10 A3029 RMK A01 T02290098  RH  043%=      5-min Rain = 0
KTAS 101555Z 18007KT 23/10 A3029 RMK A01 T02290097  RH  043%=      5-min Rain = 0
KTAS 101556Z 17004KT 23/10 A3029 RMK A01 T02280097  RH  043%=      5-min Rain = 0
KTAS 101557Z 16004KT 23/10 A3029 RMK A01 T02270098  RH  044%=      5-min Rain = 0
KTAS 101558Z 15008KT 23/10 A3029 RMK A01 T02280100  RH  044%=      5-min Rain = 0
KTAS 101559Z 16009KT 23/10 A3029 RMK A01 T02310101  RH  044%=      5-min Rain = 0
KTAS 101600Z 15007KT 24/10 A3029 RMK A01 T02350100  RH  042%=      5-min Rain = 0
KTAS 101601Z 15005KT 24/10 A3029 RMK A01 T02350098  RH  042%=      5-min Rain = 0
KTAS 101602Z 15008KT 23/10 A3029 RMK A01 T02340100  RH  043%=      5-min Rain = 0
KTAS 101603Z 16007KT 23/10 A3029 RMK A01 T02320099  RH  043%=      5-min Rain = 0
KTAS 101604Z 15005KT 23/10 A3029 RMK A01 T02320100  RH  043%=      5-min Rain = 0
KTAS 101605Z 16008KT 23/10 A3029 RMK A01 T02330099  RH  043%=      5-min Rain = 0
KTAS 101606Z 17007KT 23/10 A3029 RMK A01 T02330099  RH  042%=      5-min Rain = 0
KTAS 101607Z 15006KT 23/10 A3029 RMK A01 T02320098  RH  043%=      5-min Rain = 0
KTAS 101608Z 13005KT 23/10 A3029 RMK A01 T02310098  RH  043%=      5-min Rain = 0
KTAS 101609Z 13005KT 23/10 A3029 RMK A01 T02320100  RH  043%=      5-min Rain = 0
KTAS 101610Z 12008KT 23/10 A3029 RMK A01 T02330101  RH  043%=      5-min Rain = 0
KTAS 101611Z 16008KT 24/10 A3029 RMK A01 T02350099  RH  042%=      5-min Rain = 0
KTAS 101612Z 15007KT 23/10 A3029 RMK A01 T02320098  RH  043%=      5-min Rain = 0
KTAS 101613Z 16007KT 23/10 A3029 RMK A01 T02310101  RH  044%=      5-min Rain = 0
KTAS 101614Z 17007KT 23/10 A3029 RMK A01 T02330098  RH  042%=      5-min Rain = 0
KTAS 101615Z 16008KT 23/10 A3029 RMK A01 T02310099  RH  043%=      5-min Rain = 0
KTAS 101616Z 17007KT 23/10 A3029 RMK A01 T02320100  RH  043%=      5-min Rain = 0
KTAS 101617Z 14005KT 23/10 A3029 RMK A01 T02320098  RH  043%=      5-min Rain = 0
KTAS 101618Z 15008KT 23/10 A3029 RMK A01 T02340100  RH  043%=      5-min Rain = 0
KTAS 101619Z 15008KT 24/10 A3029 RMK A01 T02360100  RH  042%=      5-min Rain = 0
KTAS 101620Z 14007KT 24/10 A3029 RMK A01 T02360098  RH  041%=      5-min Rain = 0
KTAS 101621Z 13008KT 24/10 A3029 RMK A01 T02350099  RH  042%=      5-min Rain = 0
KTAS 101622Z 15007KT 23/10 A3029 RMK A01 T02340098  RH  042%=      5-min Rain = 0
KTAS 101623Z 13004KT 23/10 A3029 RMK A01 T02330100  RH  043%=      5-min Rain = 0
KTAS 101624Z 14003KT 24/10 A3029 RMK A01 T02360101  RH  042%=      5-min Rain = 0
KTAS 101625Z 16005KT 24/10 A3029 RMK A01 T02390102  RH  042%=      5-min Rain = 0
KTAS 101626Z 14008KT 24/10 A3029 RMK A01 T02420102  RH  041%=      5-min Rain = 0
KTAS 101627Z 14007KT 24/10 A3029 RMK A01 T02420100  RH  041%=      5-min Rain = 0
KTAS 101628Z 16005KT 24/10 A3029 RMK A01 T02420102  RH  041%=      5-min Rain = 0
KTAS 101629Z 15008KT 24/10 A3029 RMK A01 T02440102  RH  040%=      5-min Rain = 0
KTAS 101630Z 14007KT 24/10 A3029 RMK A01 T02430098  RH  040%=      5-min Rain = 0
KTAS 101631Z 13006KT 24/10 A3029 RMK A01 T02380098  RH  041%=      5-min Rain = 0
KTAS 101632Z 11004KT 24/10 A3029 RMK A01 T02350098  RH  042%=      5-min Rain = 0
KTAS 101633Z 16005KT 24/10 A3029 RMK A01 T02370101  RH  042%=      5-min Rain = 0
KTAS 101634Z 15007KT 24/10 A3029 RMK A01 T02400098  RH  041%=      5-min Rain = 0
KTAS 101635Z 14008KT 24/10 A3029 RMK A01 T02400098  RH  041%=      5-min Rain = 0
KTAS 101636Z 15008KT 24/10 A3029 RMK A01 T02370098  RH  041%=      5-min Rain = 0
KTAS 101637Z 15006KT 24/10 A3029 RMK A01 T02380099  RH  041%=      5-min Rain = 0
KTAS 101638Z 17003KT 24/10 A3029 RMK A01 T02360097  RH  041%=      5-min Rain = 0
KTAS 101639Z 15004KT 23/10 A3029 RMK A01 T02340099  RH  042%=      5-min Rain = 0
KTAS 101640Z 18006KT 24/10 A3029 RMK A01 T02360101  RH  042%=      5-min Rain = 0
KTAS 101641Z 19005KT 24/10 A3029 RMK A01 T02350098  RH  042%=      5-min Rain = 0
KTAS 101642Z 18003KT 23/10 A3028 RMK A01 T02340101  RH  043%=      5-min Rain = 0
KTAS 101643Z 16005KT 24/10 A3028 RMK A01 T02390102  RH  042%=      5-min Rain = 0
KTAS 101644Z 16007KT 24/10 A3028 RMK A01 T02440101  RH  040%=      5-min Rain = 0
KTAS 101645Z 16008KT 24/10 A3028 RMK A01 T02440100  RH  040%=      5-min Rain = 0
KTAS 101646Z 16007KT 24/10 A3028 RMK A01 T02400100  RH  041%=      5-min Rain = 0
KTAS 101647Z 16007KT 24/10 A3028 RMK A01 T02410100  RH  041%=      5-min Rain = 0
KTAS 101648Z 17004KT 24/10 A3028 RMK A01 T02390097  RH  041%=      5-min Rain = 0
KTAS 101649Z 19005KT 24/10 A3028 RMK A01 T02360098  RH  042%=      5-min Rain = 0
KTAS 101650Z 19003KT 24/10 A3028 RMK A01 T02350099  RH  042%=      5-min Rain = 0
KTAS 101651Z 17003KT 24/10 A3028 RMK A01 T02350100  RH  042%=      5-min Rain = 0
KTAS 101652Z 20006G11KT 24/10 A3028 RMK A01 T02350101  RH  042%=      5-min Rain = 0
KTAS 101653Z 20008KT 24/10 A3028 RMK A01 T02390102  RH  042%=      5-min Rain = 0
KTAS 101654Z 18005KT 24/10 A3028 RMK A01 T02390101  RH  041%=      5-min Rain = 0
KTAS 101655Z 20004KT 24/10 A3028 RMK A01 T02390101  RH  042%=      5-min Rain = 0
KTAS 101656Z 17005KT 24/10 A3028 RMK A01 T02400102  RH  042%=      5-min Rain = 0
KTAS 101657Z 15004KT 24/10 A3028 RMK A01 T02430102  RH  041%=      5-min Rain = 0
KTAS 101658Z 14005KT 25/10 A3028 RMK A01 T02470103  RH  040%=      5-min Rain = 0
KTAS 101659Z 14005KT 25/10 A3028 RMK A01 T02480100  RH  039%=      5-min Rain = 0
KTAS 101700Z 15003KT 25/10 A3028 RMK A01 T02480101  RH  040%=      5-min Rain = 0
KTAS 101701Z 13006KT 25/10 A3028 RMK A01 T02490099  RH  039%=      5-min Rain = 0
KTAS 101702Z 12006KT 25/10 A3028 RMK A01 T02480099  RH  039%=      5-min Rain = 0
KTAS 101703Z 16006KT 25/10 A3028 RMK A01 T02470098  RH  039%=      5-min Rain = 0
KTAS 101704Z 16005KT 25/10 A3028 RMK A01 T02450098  RH  039%=      5-min Rain = 0
KTAS 101705Z 18005KT 24/10 A3028 RMK A01 T02440098  RH  040%=      5-min Rain = 0
KTAS 101706Z 17003KT 24/10 A3028 RMK A01 T02420098  RH  040%=      5-min Rain = 0
KTAS 101707Z 16005KT 24/10 A3028 RMK A01 T02430100  RH  040%=      5-min Rain = 0
KTAS 101708Z 14005KT 25/10 A3028 RMK A01 T02450098  RH  039%=      5-min Rain = 0
KTAS 101709Z 14006KT 25/10 A3028 RMK A01 T02460099  RH  040%=      5-min Rain = 0
KTAS 101710Z 15008KT 25/10 A3028 RMK A01 T02460097  RH  039%=      5-min Rain = 0
KTAS 101711Z 16005KT 25/10 A3028 RMK A01 T02450097  RH  039%=      5-min Rain = 0
KTAS 101712Z 19005KT 25/10 A3028 RMK A01 T02450098  RH  039%=      5-min Rain = 0
KTAS 101713Z 19004KT 24/10 A3028 RMK A01 T02430098  RH  040%=      5-min Rain = 0
KTAS 101714Z 19006KT 25/10 A3028 RMK A01 T02450098  RH  039%=      5-min Rain = 0
KTAS 101715Z 18007KT 25/10 A3028 RMK A01 T02460097  RH  039%=      5-min Rain = 0
KTAS 101716Z 18004KT 24/10 A3028 RMK A01 T02440098  RH  040%=      5-min Rain = 0
KTAS 101717Z 14002KT 25/10 A3028 RMK A01 T02450098  RH  039%=      5-min Rain = 0
KTAS 101718Z 14005KT 25/10 A3028 RMK A01 T02480099  RH  039%=      5-min Rain = 0
KTAS 101719Z 18005KT 25/10 A3028 RMK A01 T02520098  RH  038%=      5-min Rain = 0
KTAS 101720Z 19006KT 25/10 A3028 RMK A01 T02540098  RH  037%=      5-min Rain = 0
KTAS 101721Z 16005KT 25/10 A3028 RMK A01 T02510098  RH  038%=      5-min Rain = 0
KTAS 101722Z 14004KT 25/10 A3027 RMK A01 T02510098  RH  038%=      5-min Rain = 0
KTAS 101723Z 18005KT 25/10 A3027 RMK A01 T02510099  RH  038%=      5-min Rain = 0
KTAS 101724Z 19004KT 25/10 A3027 RMK A01 T02490097  RH  038%=      5-min Rain = 0
KTAS 101725Z 18003KT 25/10 A3027 RMK A01 T02460098  RH  039%=      5-min Rain = 0
KTAS 101726Z 17004KT 25/10 A3027 RMK A01 T02470098  RH  039%=      5-min Rain = 0
KTAS 101727Z 16003KT 25/10 A3027 RMK A01 T02460098  RH  039%=      5-min Rain = 0
KTAS 101728Z 18002KT 25/10 A3027 RMK A01 T02480100  RH  039%=      5-min Rain = 0
KTAS 101729Z 14004KT 25/10 A3027 RMK A01 T02530100  RH  038%=      5-min Rain = 0
KTAS 101730Z 18005KT 25/10 A3027 RMK A01 T02540100  RH  038%=      5-min Rain = 0
KTAS 101731Z 17005KT 25/10 A3027 RMK A01 T02500099  RH  038%=      5-min Rain = 0
KTAS 101732Z 18004KT 25/10 A3027 RMK A01 T02480099  RH  039%=      5-min Rain = 0
KTAS 101733Z 15006G12KT 25/10 A3027 RMK A01 T02480098  RH  039%=      5-min Rain = 0
KTAS 101734Z 12004KT 25/10 A3027 RMK A01 T02480098  RH  039%=      5-min Rain = 0
KTAS 101735Z 15007KT 25/10 A3027 RMK A01 T02530097  RH  037%=      5-min Rain = 0
KTAS 101736Z 14006KT 25/09 A3027 RMK A01 T02530094  RH  037%=      5-min Rain = 0
KTAS 101737Z 12006KT 25/10 A3027 RMK A01 T02520096  RH  037%=      5-min Rain = 0
KTAS 101738Z 12006KT 25/10 A3027 RMK A01 T02540096  RH  037%=      5-min Rain = 0
KTAS 101739Z 12006KT 26/10 A3027 RMK A01 T02550097  RH  037%=      5-min Rain = 0
KTAS 101740Z 12006KT 25/10 A3027 RMK A01 T02540095  RH  037%=      5-min Rain = 0
KTAS 101741Z 12006KT 25/10 A3027 RMK A01 T02520096  RH  037%=      5-min Rain = 0
KTAS 101742Z 11005KT 25/10 A3027 RMK A01 T02510096  RH  037%=      5-min Rain = 0
KTAS 101743Z 07006KT 25/10 A3027 RMK A01 T02520098  RH  038%=      5-min Rain = 0
KTAS 101744Z 06003KT 25/10 A3027 RMK A01 T02530097  RH  037%=      5-min Rain = 0
KTAS 101745Z 12002KT 25/10 A3027 RMK A01 T02520096  RH  037%=      5-min Rain = 0
KTAS 101746Z 19004KT 25/10 A3027 RMK A01 T02530097  RH  037%=      5-min Rain = 0
KTAS 101747Z 20003KT 25/10 A3027 RMK A01 T02540096  RH  037%=      5-min Rain = 0
KTAS 101748Z 19004KT 25/10 A3027 RMK A01 T02530096  RH  037%=      5-min Rain = 0
KTAS 101749Z 20002KT 25/10 A3027 RMK A01 T02510095  RH  037%=      5-min Rain = 0
KTAS 101750Z 23003KT 25/09 A3027 RMK A01 T02480094  RH  038%=      5-min Rain = 0
KTAS 101751Z 28003KT 25/09 A3027 RMK A01 T02470094  RH  038%=      5-min Rain = 0
KTAS 101752Z 27002KT 25/10 A3027 RMK A01 T02480095  RH  038%=      5-min Rain = 0
KTAS 101753Z 18006KT 25/10 A3027 RMK A01 T02490096  RH  038%=      5-min Rain = 0
KTAS 101754Z 18007KT 25/10 A3027 RMK A01 T02540097  RH  037%=      5-min Rain = 0
KTAS 101755Z 19008KT 26/10 A3027 RMK A01 T02580097  RH  036%=      5-min Rain = 0
KTAS 101756Z 17005KT 26/10 A3027 RMK A01 T02570098  RH  037%=      5-min Rain = 0
KTAS 101757Z 19004KT 26/10 A3027 RMK A01 T02590097  RH  036%=      5-min Rain = 0
KTAS 101758Z 19005KT 26/10 A3027 RMK A01 T02590097  RH  036%=      5-min Rain = 0
KTAS 101759Z 18006KT 26/10 A3027 RMK A01 T02570097  RH  036%=      5-min Rain = 0
KTAS 101800Z 22003KT 25/10 A3027 RMK A01 T02530096  RH  037%=      5-min Rain = 0
KTAS 101801Z 21003KT 25/10 A3027 RMK A01 T02510095  RH  037%=      5-min Rain = 0
KTAS 101802Z 16001KT 25/10 A3027 RMK A01 T02500097  RH  038%=      5-min Rain = 0
KTAS 101803Z 13001KT 25/10 A3027 RMK A01 T02520097  RH  037%=      5-min Rain = 0
KTAS 101804Z 13003KT 26/10 A3027 RMK A01 T02550097  RH  037%=      5-min Rain = 0
KTAS 101805Z 17003KT 26/10 A3027 RMK A01 T02550097  RH  037%=      5-min Rain = 0
KTAS 101806Z 14005KT 26/10 A3026 RMK A01 T02580097  RH  036%=      5-min Rain = 0
KTAS 101807Z 15004KT 26/10 A3026 RMK A01 T02600096  RH  036%=      5-min Rain = 0
KTAS 101808Z 15005KT 26/10 A3026 RMK A01 T02610096  RH  035%=      5-min Rain = 0
KTAS 101809Z 16005KT 26/10 A3026 RMK A01 T02630096  RH  035%=      5-min Rain = 0
KTAS 101810Z 16005KT 26/10 A3026 RMK A01 T02630096  RH  035%=      5-min Rain = 0
KTAS 101811Z 18003KT 26/10 A3026 RMK A01 T02640096  RH  035%=      5-min Rain = 0
KTAS 101812Z 21002KT 26/09 A3026 RMK A01 T02640094  RH  034%=      5-min Rain = 0
KTAS 101813Z 18003KT 27/10 A3026 RMK A01 T02650097  RH  035%=      5-min Rain = 0
KTAS 101814Z 20006KT 27/10 A3026 RMK A01 T02680095  RH  034%=      5-min Rain = 0
KTAS 101815Z 20006KT 27/09 A3026 RMK A01 T02660094  RH  034%=      5-min Rain = 0
KTAS 101816Z 21006KT 26/10 A3026 RMK A01 T02600095  RH  035%=      5-min Rain = 0
KTAS 101817Z 21004KT 26/10 A3026 RMK A01 T02570096  RH  036%=      5-min Rain = 0
KTAS 101818Z 23003KT 26/10 A3026 RMK A01 T02560095  RH  036%=      5-min Rain = 0
KTAS 101819Z 24002KT 25/10 A3026 RMK A01 T02530095  RH  037%=      5-min Rain = 0
KTAS 101820Z 14006KT 25/10 A3026 RMK A01 T02540098  RH  037%=      5-min Rain = 0
KTAS 101821Z 15008KT 26/10 A3026 RMK A01 T02590096  RH  036%=      5-min Rain = 0
KTAS 101822Z 15003KT 26/10 A3026 RMK A01 T02600096  RH  036%=      5-min Rain = 0
KTAS 101823Z 12001KT 26/10 A3026 RMK A01 T02600096  RH  036%=      5-min Rain = 0
KTAS 101824Z 14004KT 26/10 A3026 RMK A01 T02610099  RH  036%=      5-min Rain = 0
KTAS 101825Z 15008KT 27/10 A3026 RMK A01 T02650098  RH  035%=      5-min Rain = 0
KTAS 101826Z 14007KT 27/10 A3026 RMK A01 T02650096  RH  035%=      5-min Rain = 0
KTAS 101827Z 15009KT 26/10 A3026 RMK A01 T02610097  RH  036%=      5-min Rain = 0
KTAS 101828Z 19007KT 26/10 A3026 RMK A01 T02620097  RH  035%=      5-min Rain = 0
KTAS 101829Z 20005KT 26/10 A3026 RMK A01 T02620099  RH  036%=      5-min Rain = 0
KTAS 101830Z 22004KT 26/10 A3026 RMK A01 T02640096  RH  035%=      5-min Rain = 0
KTAS 101831Z 20005KT 26/10 A3026 RMK A01 T02590096  RH  036%=      5-min Rain = 0
KTAS 101832Z 20005KT 26/10 A3026 RMK A01 T02610096  RH  035%=      5-min Rain = 0
KTAS 101833Z 20005KT 26/10 A3026 RMK A01 T02610096  RH  035%=      5-min Rain = 0
KTAS 101834Z 17005KT 26/10 A3026 RMK A01 T02610095  RH  035%=      5-min Rain = 0
KTAS 101835Z 17003KT 26/10 A3026 RMK A01 T02580095  RH  036%=      5-min Rain = 0
KTAS 101836Z 12007KT 26/10 A3026 RMK A01 T02610095  RH  035%=      5-min Rain = 0
KTAS 101837Z 11009KT 27/09 A3026 RMK A01 T02650092  RH  033%=      5-min Rain = 0
KTAS 101838Z 10008KT 27/09 A3026 RMK A01 T02670093  RH  033%=      5-min Rain = 0
KTAS 101839Z 10007KT 27/09 A3025 RMK A01 T02680093  RH  033%=      5-min Rain = 0
KTAS 101840Z 11007KT 27/09 A3026 RMK A01 T02650090  RH  033%=      5-min Rain = 0
KTAS 101841Z 11005KT 26/09 A3026 RMK A01 T02590089  RH  034%=      5-min Rain = 0
KTAS 101842Z 08004KT 26/09 A3025 RMK A01 T02560089  RH  035%=      5-min Rain = 0
KTAS 101843Z 05003KT 25/09 A3025 RMK A01 T02530088  RH  035%=      5-min Rain = 0
KTAS 101844Z 05002KT 25/09 A3025 RMK A01 T02540089  RH  035%=      5-min Rain = 0
KTAS 101845Z 11002KT 26/09 A3025 RMK A01 T02560091  RH  035%=      5-min Rain = 0
KTAS 101846Z 13005KT 26/09 A3025 RMK A01 T02630092  RH  034%=      5-min Rain = 0
KTAS 101847Z 14007KT 27/09 A3025 RMK A01 T02660092  RH  033%=      5-min Rain = 0
KTAS 101848Z 11006KT 27/09 A3025 RMK A01 T02650091  RH  033%=      5-min Rain = 0
KTAS 101849Z 10003KT 26/09 A3025 RMK A01 T02610091  RH  034%=      5-min Rain = 0
KTAS 101850Z 10002KT 26/09 A3025 RMK A01 T02620093  RH  034%=      5-min Rain = 0
KTAS 101851Z 10003KT 27/09 A3025 RMK A01 T02650092  RH  034%=      5-min Rain = 0
KTAS 101852Z 10007KT 27/09 A3025 RMK A01 T02660094  RH  034%=      5-min Rain = 0
KTAS 101853Z 08005KT 27/09 A3025 RMK A01 T02700094  RH  033%=      5-min Rain = 0
KTAS 101854Z 07006KT 27/09 A3025 RMK A01 T02680092  RH  033%=      5-min Rain = 0
KTAS 101855Z 09005G10KT 26/09 A3025 RMK A01 T02630092  RH  034%=      5-min Rain = 0
KTAS 101856Z 12005KT 27/09 A3025 RMK A01 T02650093  RH  034%=      5-min Rain = 0
KTAS 101857Z 11007KT 27/09 A3025 RMK A01 T02670093  RH  033%=      5-min Rain = 0
KTAS 101858Z 10004KT 27/09 A3025 RMK A01 T02670093  RH  033%=      5-min Rain = 0
KTAS 101859Z 12005KT 27/09 A3025 RMK A01 T02670092  RH  033%=      5-min Rain = 0
KTAS 101900Z 16004KT 27/09 A3025 RMK A01 T02670093  RH  033%=      5-min Rain = 0
KTAS 101901Z 15002KT 27/09 A3025 RMK A01 T02660092  RH  033%=      5-min Rain = 0
KTAS 101902Z 14000KT 27/09 A3025 RMK A01 T02650091  RH  033%=      5-min Rain = 0
KTAS 101903Z 19002KT 27/09 A3025 RMK A01 T02650093  RH  034%=      5-min Rain = 0
KTAS 101904Z 15004KT 27/09 A3024 RMK A01 T02690094  RH  033%=      5-min Rain = 0
KTAS 101905Z 13005KT 27/09 A3024 RMK A01 T02720094  RH  033%=      5-min Rain = 0
KTAS 101906Z 10004KT 27/09 A3024 RMK A01 T02740094  RH  032%=      5-min Rain = 0
KTAS 101907Z 13006KT 28/09 A3024 RMK A01 T02750094  RH  032%=      5-min Rain = 0
KTAS 101908Z 14006KT 27/09 A3024 RMK A01 T02740094  RH  032%=      5-min Rain = 0
KTAS 101909Z 13005KT 28/09 A3024 RMK A01 T02750093  RH  032%=      5-min Rain = 0
KTAS 101910Z 17007KT 28/09 A3024 RMK A01 T02750093  RH  032%=      5-min Rain = 0
KTAS 101911Z 16006KT 28/09 A3024 RMK A01 T02760092  RH  031%=      5-min Rain = 0
KTAS 101912Z 15006KT 27/09 A3024 RMK A01 T02740092  RH  032%=      5-min Rain = 0
KTAS 101913Z 15006KT 27/09 A3024 RMK A01 T02730092  RH  032%=      5-min Rain = 0
KTAS 101914Z 16005KT 27/09 A3024 RMK A01 T02710092  RH  032%=      5-min Rain = 0
KTAS 101915Z 16005KT 27/09 A3024 RMK A01 T02710091  RH  032%=      5-min Rain = 0
KTAS 101916Z 20004KT 27/09 A3024 RMK A01 T02690092  RH  033%=      5-min Rain = 0
KTAS 101917Z 17004KT 27/09 A3024 RMK A01 T02700093  RH  033%=      5-min Rain = 0
KTAS 101918Z 17006KT 28/09 A3024 RMK A01 T02750093  RH  032%=      5-min Rain = 0
KTAS 101919Z 15004KT 28/09 A3024 RMK A01 T02770092  RH  031%=      5-min Rain = 0
KTAS 101920Z 17004KT 28/09 A3024 RMK A01 T02760092  RH  031%=      5-min Rain = 0
KTAS 101921Z 16006KT 28/09 A3024 RMK A01 T02770092  RH  031%=      5-min Rain = 0
KTAS 101922Z 17004KT 28/09 A3024 RMK A01 T02760092  RH  031%=      5-min Rain = 0
KTAS 101923Z 18006KT 28/09 A3024 RMK A01 T02750091  RH  031%=      5-min Rain = 0
KTAS 101924Z 17003KT 27/09 A3024 RMK A01 T02720090  RH  032%=      5-min Rain = 0
KTAS 101925Z 21004KT 27/09 A3024 RMK A01 T02730092  RH  032%=      5-min Rain = 0
KTAS 101926Z 23004KT 28/09 A3024 RMK A01 T02760091  RH  031%=      5-min Rain = 0
KTAS 101927Z 23004KT 28/09 A3024 RMK A01 T02760089  RH  031%=      5-min Rain = 0
KTAS 101928Z 20004KT 27/09 A3023 RMK A01 T02740090  RH  031%=      5-min Rain = 0
KTAS 101929Z 17006KT 27/09 A3023 RMK A01 T02740092  RH  032%=      5-min Rain = 0
KTAS 101930Z 21005KT 27/09 A3023 RMK A01 T02740092  RH  032%=      5-min Rain = 0
KTAS 101931Z 23005KT 27/09 A3023 RMK A01 T02740092  RH  032%=      5-min Rain = 0
KTAS 101932Z 22009KT 28/09 A3023 RMK A01 T02770094  RH  032%=      5-min Rain = 0
KTAS 101933Z 06010KT 28/10 A3022 RMK A01 T02840096  RH  031%=      5-min Rain = 0
KTAS 101934Z 06006KT 28/10 A3023 RMK A01 T02790096  RH  032%=      5-min Rain = 0
KTAS 101935Z 09002KT 28/10 A3023 RMK A01 T02790095  RH  031%=      5-min Rain = 0
KTAS 101936Z 16004KT 28/09 A3023 RMK A01 T02780093  RH  031%=      5-min Rain = 0
KTAS 101937Z 14006KT 28/09 A3023 RMK A01 T02780093  RH  031%=      5-min Rain = 0
KTAS 101938Z 15005KT 28/09 A3023 RMK A01 T02780094  RH  031%=      5-min Rain = 0
KTAS 101939Z 16005KT 28/09 A3023 RMK A01 T02780093  RH  031%=      5-min Rain = 0
KTAS 101940Z 19003KT 28/09 A3023 RMK A01 T02790093  RH  031%=      5-min Rain = 0
KTAS 101941Z 19003KT 28/09 A3023 RMK A01 T02790093  RH  031%=      5-min Rain = 0
KTAS 101942Z 20006KT 28/09 A3023 RMK A01 T02790092  RH  031%=      5-min Rain = 0
KTAS 101943Z 19006KT 28/09 A3023 RMK A01 T02810094  RH  031%=      5-min Rain = 0
KTAS 101944Z 19005KT 28/09 A3023 RMK A01 T02840089  RH  029%=      5-min Rain = 0
KTAS 101945Z 19006KT 28/09 A3023 RMK A01 T02810090  RH  030%=      5-min Rain = 0
KTAS 101946Z 19005KT 28/09 A3023 RMK A01 T02800091  RH  031%=      5-min Rain = 0
KTAS 101947Z 18006KT 28/09 A3023 RMK A01 T02800089  RH  030%=      5-min Rain = 0
KTAS 101948Z 17007KT 28/09 A3023 RMK A01 T02820090  RH  030%=      5-min Rain = 0
KTAS 101949Z 15006KT 28/09 A3023 RMK A01 T02830088  RH  030%=      5-min Rain = 0
KTAS 101950Z 16005KT 28/09 A3023 RMK A01 T02820090  RH  030%=      5-min Rain = 0
KTAS 101951Z 19003KT 28/09 A3023 RMK A01 T02820089  RH  030%=      5-min Rain = 0
KTAS 101952Z 19002KT 28/09 A3023 RMK A01 T02780089  RH  030%=      5-min Rain = 0
KTAS 101953Z 17003KT 28/09 A3023 RMK A01 T02760089  RH  031%=      5-min Rain = 0
KTAS 101954Z 11004KT 28/09 A3023 RMK A01 T02790092  RH  031%=      5-min Rain = 0
KTAS 101955Z 09004KT 28/09 A3023 RMK A01 T02820091  RH  030%=      5-min Rain = 0
KTAS 101956Z 08003KT 28/09 A3023 RMK A01 T02830090  RH  030%=      5-min Rain = 0
KTAS 101957Z 11004KT 28/09 A3023 RMK A01 T02800089  RH  030%=      5-min Rain = 0
KTAS 101958Z 13004KT 28/09 A3023 RMK A01 T02780089  RH  030%=      5-min Rain = 0
KTAS 101959Z 14004KT 28/09 A3023 RMK A01 T02770089  RH  031%=      5-min Rain = 0
KTAS 102000Z 14004KT 27/09 A3022 RMK A01 T02740088  RH  031%=      5-min Rain = 0
KTAS 102001Z 14002KT 27/09 A3023 RMK A01 T02710088  RH  032%=      5-min Rain = 0
KTAS 102002Z 32001KT 27/09 A3022 RMK A01 T02700088  RH  032%=      5-min Rain = 0
KTAS 102003Z 11003KT 27/09 A3022 RMK A01 T02690089  RH  032%=      5-min Rain = 0
KTAS 102004Z 12008KT 27/09 A3022 RMK A01 T02740086  RH  031%=      5-min Rain = 0
KTAS 102005Z 12007KT 28/08 A3022 RMK A01 T02800084  RH  029%=      5-min Rain = 0
KTAS 102006Z 13010KT 28/09 A3022 RMK A01 T02820086  RH  029%=      5-min Rain = 0
KTAS 102007Z 14007KT 28/08 A3022 RMK A01 T02820084  RH  029%=      5-min Rain = 0
KTAS 102008Z 17006KT 28/08 A3022 RMK A01 T02810084  RH  029%=      5-min Rain = 0
KTAS 102009Z 19003KT 28/08 A3022 RMK A01 T02800083  RH  029%=      5-min Rain = 0
KTAS 102010Z 16002KT 28/09 A3022 RMK A01 T02810085  RH  029%=      5-min Rain = 0
KTAS 102011Z 09006KT 28/09 A3022 RMK A01 T02830085  RH  029%=      5-min Rain = 0
KTAS 102012Z 08006KT 28/09 A3022 RMK A01 T02820085  RH  029%=      5-min Rain = 0
KTAS 102013Z 09005KT 28/09 A3022 RMK A01 T02800086  RH  029%=      5-min Rain = 0
KTAS 102014Z 12004KT 28/08 A3022 RMK A01 T02810083  RH  029%=      5-min Rain = 0
KTAS 102015Z 14005KT 28/09 A3022 RMK A01 T02820088  RH  030%=      5-min Rain = 0
KTAS 102016Z 17007KT 28/09 A3022 RMK A01 T02840088  RH  029%=      5-min Rain = 0
KTAS 102017Z 17008KT 29/09 A3022 RMK A01 T02850086  RH  029%=      5-min Rain = 0
KTAS 102018Z 16005KT 28/09 A3022 RMK A01 T02810086  RH  029%=      5-min Rain = 0
KTAS 102019Z 15006KT 28/09 A3022 RMK A01 T02810087  RH  030%=      5-min Rain = 0
KTAS 102020Z 16005KT 28/09 A3022 RMK A01 T02830086  RH  029%=      5-min Rain = 0
KTAS 102021Z 14004KT 28/09 A3022 RMK A01 T02830086  RH  029%=      5-min Rain = 0
KTAS 102022Z 07006KT 28/09 A3021 RMK A01 T02840087  RH  029%=      5-min Rain = 0
KTAS 102023Z 06006KT 29/09 A3021 RMK A01 T02850087  RH  029%=      5-min Rain = 0
KTAS 102024Z 09004KT 28/09 A3021 RMK A01 T02830085  RH  029%=      5-min Rain = 0
KTAS 102025Z 10004KT 28/08 A3021 RMK A01 T02810083  RH  029%=      5-min Rain = 0
KTAS 102026Z 07003KT 28/08 A3021 RMK A01 T02800082  RH  029%=      5-min Rain = 0
KTAS 102027Z 09002KT 28/08 A3021 RMK A01 T02770082  RH  029%=      5-min Rain = 0
KTAS 102028Z 11003KT 28/09 A3021 RMK A01 T02780085  RH  030%=      5-min Rain = 0
KTAS 102029Z 17003KT 28/08 A3021 RMK A01 T02820084  RH  029%=      5-min Rain = 0
KTAS 102030Z 18002KT 28/09 A3021 RMK A01 T02830087  RH  029%=      5-min Rain = 0
KTAS 102031Z 17006KT 29/09 A3021 RMK A01 T02890086  RH  028%=      5-min Rain = 0
KTAS 102032Z 20003KT 29/08 A3021 RMK A01 T02850083  RH  028%=      5-min Rain = 0
KTAS 102033Z 19001KT 28/08 A3021 RMK A01 T02810081  RH  028%=      5-min Rain = 0
KTAS 102034Z 10005KT 28/08 A3021 RMK A01 T02800081  RH  028%=      5-min Rain = 0
KTAS 102035Z 11007KT 28/08 A3021 RMK A01 T02820080  RH  028%=      5-min Rain = 0
KTAS 102036Z 12007KT 28/08 A3021 RMK A01 T02820076  RH  027%=      5-min Rain = 0
KTAS 102037Z 15005KT 28/08 A3021 RMK A01 T02820079  RH  028%=      5-min Rain = 0
KTAS 102038Z 16005KT 29/07 A3021 RMK A01 T02850074  RH  027%=      5-min Rain = 0
KTAS 102039Z 16003KT 29/07 A3021 RMK A01 T02850070  RH  026%=      5-min Rain = 0
KTAS 102040Z 14004KT 29/07 A3021 RMK A01 T02850072  RH  026%=      5-min Rain = 0
KTAS 102041Z 09002KT 28/07 A3021 RMK A01 T02840074  RH  027%=      5-min Rain = 0
KTAS 102042Z 14002KT 28/08 A3021 RMK A01 T02840075  RH  027%=      5-min Rain = 0
KTAS 102043Z 17006KT 29/08 A3021 RMK A01 T02860077  RH  027%=      5-min Rain = 0
KTAS 102044Z 17007KT 29/08 A3021 RMK A01 T02900080  RH  027%=      5-min Rain = 0
KTAS 102045Z 16008KT 29/08 A3021 RMK A01 T02930080  RH  026%=      5-min Rain = 0
KTAS 102046Z 17007KT 29/08 A3021 RMK A01 T02930078  RH  026%=      5-min Rain = 0
KTAS 102047Z 19004KT 29/08 A3021 RMK A01 T02910076  RH  026%=      5-min Rain = 0
KTAS 102048Z 16005KT 29/08 A3021 RMK A01 T02890081  RH  027%=      5-min Rain = 0
KTAS 102049Z 15006KT 29/08 A3021 RMK A01 T02910080  RH  027%=      5-min Rain = 0
KTAS 102050Z 16008KT 29/08 A3021 RMK A01 T02920079  RH  026%=      5-min Rain = 0
KTAS 102051Z 18006KT 29/08 A3021 RMK A01 T02910078  RH  026%=      5-min Rain = 0
KTAS 102052Z 18004KT 29/08 A302 RMK A01 T02900078  RH  027%=      5-min Rain = 0
KTAS 102053Z 15004KT 29/08 A302 RMK A01 T02890078  RH  027%=      5-min Rain = 0
KTAS 102054Z 20002KT 29/08 A302 RMK A01 T02890078  RH  027%=      5-min Rain = 0
KTAS 102055Z 27003KT 29/08 A302 RMK A01 T02880077  RH  026%=      5-min Rain = 0
KTAS 102056Z 29005KT 29/08 A302 RMK A01 T02860079  RH  027%=      5-min Rain = 0
KTAS 102057Z 30004KT 28/08 A302 RMK A01 T02840076  RH  027%=      5-min Rain = 0
KTAS 102058Z 30004KT 28/08 A302 RMK A01 T02810076  RH  028%=      5-min Rain = 0
KTAS 102059Z 31003KT 28/08 A302 RMK A01 T02820078  RH  028%=      5-min Rain = 0
KTAS 102100Z 33002KT 28/08 A302 RMK A01 T02820076  RH  027%=      5-min Rain = 0
KTAS 102101Z 33003KT 28/08 A302 RMK A01 T02810077  RH  028%=      5-min Rain = 0
KTAS 102102Z 32002KT 28/08 A302 RMK A01 T02790076  RH  028%=      5-min Rain = 0
KTAS 102103Z 09003KT 28/08 A302 RMK A01 T02780077  RH  028%=      5-min Rain = 0
KTAS 102104Z 09006KT 28/08 A302 RMK A01 T02820081  RH  028%=      5-min Rain = 0
KTAS 102105Z 10005KT 29/08 A302 RMK A01 T02850080  RH  028%=      5-min Rain = 0
KTAS 102106Z 09005KT 29/08 A302 RMK A01 T02860079  RH  027%=      5-min Rain = 0
KTAS 102107Z 11003KT 29/08 A302 RMK A01 T02850078  RH  027%=      5-min Rain = 0
KTAS 102108Z 14005KT 29/08 A302 RMK A01 T02860080  RH  027%=      5-min Rain = 0
KTAS 102109Z 15007KT 29/08 A302 RMK A01 T02900077  RH  026%=      5-min Rain = 0
KTAS 102110Z 14008KT 29/08 A302 RMK A01 T02890078  RH  026%=      5-min Rain = 0
KTAS 102111Z 13005KT 29/08 A302 RMK A01 T02890079  RH  027%=      5-min Rain = 0
KTAS 102112Z 14008KT 29/08 A302 RMK A01 T02910080  RH  027%=      5-min Rain = 0
KTAS 102113Z 16009KT 29/08 A302 RMK A01 T02930078  RH  026%=      5-min Rain = 0
KTAS 102114Z 16008KT 29/08 A302 RMK A01 T02930077  RH  026%=      5-min Rain = 0
KTAS 102115Z 15006KT 29/08 A302 RMK A01 T02930076  RH  025%=      5-min Rain = 0
KTAS 102116Z 14005KT 29/07 A302 RMK A01 T02890073  RH  026%=      5-min Rain = 0
KTAS 102117Z 17004KT 29/07 A302 RMK A01 T02860074  RH  026%=      5-min Rain = 0
KTAS 102118Z 12004KT 29/08 A302 RMK A01 T02860077  RH  027%=      5-min Rain = 0
KTAS 102119Z 13004KT 29/08 A302 RMK A01 T02880077  RH  026%=      5-min Rain = 0
KTAS 102120Z 11002KT 29/08 A302 RMK A01 T02880075  RH  026%=      5-min Rain = 0
KTAS 102121Z 08001KT 29/08 A3019 RMK A01 T02860076  RH  027%=      5-min Rain = 0
KTAS 102122Z 20001KT 29/08 A3019 RMK A01 T02850076  RH  027%=      5-min Rain = 0
KTAS 102123Z 21002KT 29/08 A3019 RMK A01 T02870076  RH  027%=      5-min Rain = 0
KTAS 102124Z 20002KT 29/08 A3019 RMK A01 T02890075  RH  026%=      5-min Rain = 0
KTAS 102125Z 17004KT 29/08 A3019 RMK A01 T02890077  RH  026%=      5-min Rain = 0
KTAS 102126Z 17001KT 29/08 A3019 RMK A01 T02890077  RH  026%=      5-min Rain = 0
KTAS 102127Z 03001KT 29/08 A3019 RMK A01 T02880076  RH  026%=      5-min Rain = 0
KTAS 102128Z 17002KT 29/08 A3019 RMK A01 T02870078  RH  027%=      5-min Rain = 0
KTAS 102129Z 30002KT 29/08 A3019 RMK A01 T02900079  RH  027%=      5-min Rain = 0
KTAS 102130Z 05004KT 29/08 A3019 RMK A01 T02920079  RH  026%=      5-min Rain = 0
KTAS 102131Z 08008KT 29/08 A3019 RMK A01 T02920082  RH  027%=      5-min Rain = 0
KTAS 102132Z 06006KT 29/08 A3019 RMK A01 T02880081  RH  027%=      5-min Rain = 0
KTAS 102133Z 09007KT 29/08 A3019 RMK A01 T02880084  RH  028%=      5-min Rain = 0
KTAS 102134Z 12009KT 29/08 A3019 RMK A01 T02900082  RH  027%=      5-min Rain = 0
KTAS 102135Z 11006KT 29/08 A3019 RMK A01 T02890080  RH  027%=      5-min Rain = 0
KTAS 102136Z 13006KT 29/08 A3019 RMK A01 T02900083  RH  027%=      5-min Rain = 0
KTAS 102137Z 16004KT 29/08 A3019 RMK A01 T02900080  RH  027%=      5-min Rain = 0
KTAS 102138Z 13004KT 29/08 A3019 RMK A01 T02880081  RH  027%=      5-min Rain = 0
KTAS 102139Z 14004KT 29/08 A3019 RMK A01 T02880083  RH  028%=      5-min Rain = 0
KTAS 102140Z 16003KT 29/08 A3019 RMK A01 T02900081  RH  027%=      5-min Rain = 0
KTAS 102141Z 24001KT 29/08 A3019 RMK A01 T02900079  RH  027%=      5-min Rain = 0
KTAS 102142Z 25002KT 29/08 A3019 RMK A01 T02890079  RH  027%=      5-min Rain = 0
KTAS 102143Z 19002KT 29/08 A3019 RMK A01 T02890081  RH  027%=      5-min Rain = 0
KTAS 102144Z 08007KT 29/08 A3019 RMK A01 T02900082  RH  027%=      5-min Rain = 0
KTAS 102145Z 10008KT 29/08 A3019 RMK A01 T02890082  RH  027%=      5-min Rain = 0
KTAS 102146Z 09008KT 29/08 A3019 RMK A01 T02880080  RH  027%=      5-min Rain = 0
KTAS 102147Z 09007KT 29/08 A3019 RMK A01 T02870081  RH  027%=      5-min Rain = 0
KTAS 102148Z 10006KT 29/08 A3019 RMK A01 T02890084  RH  028%=      5-min Rain = 0
KTAS 102149Z 08004KT 29/08 A3019 RMK A01 T02920079  RH  026%=      5-min Rain = 0
KTAS 102150Z 09003KT 29/08 A3019 RMK A01 T02880078  RH  027%=      5-min Rain = 0
KTAS 102151Z 10002KT 29/08 A3019 RMK A01 T02870080  RH  027%=      5-min Rain = 0
KTAS 102152Z 06003KT 29/08 A3019 RMK A01 T02890080  RH  027%=      5-min Rain = 0
KTAS 102153Z 08003KT 29/08 A3019 RMK A01 T02880078  RH  027%=      5-min Rain = 0
KTAS 102154Z 12004KT 29/08 A3019 RMK A01 T02880079  RH  027%=      5-min Rain = 0
KTAS 102155Z 11007KT 29/08 A3019 RMK A01 T02890079  RH  027%=      5-min Rain = 0
KTAS 102156Z 12006KT 29/08 A3019 RMK A01 T02900078  RH  026%=      5-min Rain = 0
KTAS 102157Z 13004KT 29/08 A3019 RMK A01 T02900079  RH  027%=      5-min Rain = 0
KTAS 102158Z 14005KT 29/08 A3019 RMK A01 T02910078  RH  026%=      5-min Rain = 0
KTAS 102159Z 11004KT 29/08 A3019 RMK A01 T02900078  RH  026%=      5-min Rain = 0
KTAS 102200Z 13004KT 29/08 A3019 RMK A01 T02910079  RH  026%=      5-min Rain = 0
KTAS 102201Z 11001KT 29/08 A3019 RMK A01 T02910076  RH  026%=      5-min Rain = 0
KTAS 102202Z 09005KT 29/08 A3019 RMK A01 T02910078  RH  026%=      5-min Rain = 0
KTAS 102203Z 09003KT 29/08 A3019 RMK A01 T02870076  RH  026%=      5-min Rain = 0
KTAS 102204Z 10004KT 29/08 A3019 RMK A01 T02860078  RH  027%=      5-min Rain = 0
KTAS 102205Z 11004KT 29/08 A3019 RMK A01 T02890081  RH  027%=      5-min Rain = 0
KTAS 102206Z 08006KT 29/08 A3019 RMK A01 T02930082  RH  027%=      5-min Rain = 0
KTAS 102207Z 07007KT 29/08 A3019 RMK A01 T02940080  RH  026%=      5-min Rain = 0
KTAS 102208Z 06006KT 29/08 A3019 RMK A01 T02920078  RH  026%=      5-min Rain = 0
KTAS 102209Z 06004KT 29/08 A3019 RMK A01 T02890078  RH  027%=      5-min Rain = 0
KTAS 102210Z 10008KT 29/08 A3019 RMK A01 T02890080  RH  027%=      5-min Rain = 0
KTAS 102211Z 11008KT 29/08 A3019 RMK A01 T02900079  RH  027%=      5-min Rain = 0
KTAS 102212Z 11008KT 29/08 A3019 RMK A01 T02920079  RH  026%=      5-min Rain = 0
KTAS 102213Z 10006KT 29/08 A3019 RMK A01 T02900079  RH  027%=      5-min Rain = 0
KTAS 102214Z 09006KT 29/08 A3019 RMK A01 T02890078  RH  027%=      5-min Rain = 0
KTAS 102215Z 08007KT 29/08 A3019 RMK A01 T02890078  RH  027%=      5-min Rain = 0
KTAS 102216Z 07004KT 29/08 A3019 RMK A01 T02880078  RH  027%=      5-min Rain = 0
KTAS 102217Z 09003KT 29/08 A3019 RMK A01 T02870076  RH  027%=      5-min Rain = 0
KTAS 102218Z 15004KT 29/08 A3019 RMK A01 T02860077  RH  027%=      5-min Rain = 0
KTAS 102219Z 10005KT 29/08 A3019 RMK A01 T02870077  RH  027%=      5-min Rain = 0
KTAS 102220Z 12003KT 29/08 A3019 RMK A01 T02860077  RH  027%=      5-min Rain = 0
KTAS 102221Z 12003KT 29/08 A3019 RMK A01 T02850079  RH  027%=      5-min Rain = 0
KTAS 102222Z 12004KT 29/08 A3019 RMK A01 T02880081  RH  027%=      5-min Rain = 0
KTAS 102223Z 10005KT 29/08 A3019 RMK A01 T02910080  RH  027%=      5-min Rain = 0
KTAS 102224Z 12004KT 29/08 A3019 RMK A01 T02910079  RH  026%=      5-min Rain = 0
KTAS 102225Z 11004KT 29/08 A3018 RMK A01 T02930083  RH  027%=      5-min Rain = 0
KTAS 102226Z 10007KT 30/08 A3018 RMK A01 T02950084  RH  027%=      5-min Rain = 0
KTAS 102227Z 11008KT 29/08 A3018 RMK A01 T02940082  RH  026%=      5-min Rain = 0
KTAS 102228Z 12008KT 29/08 A3018 RMK A01 T02930082  RH  027%=      5-min Rain = 0
KTAS 102229Z 13004KT 29/08 A3018 RMK A01 T02920082  RH  027%=      5-min Rain = 0
KTAS 102230Z 09003KT 29/08 A3018 RMK A01 T02920083  RH  027%=      5-min Rain = 0
KTAS 102231Z 08004KT 29/08 A3018 RMK A01 T02920084  RH  027%=      5-min Rain = 0
KTAS 102232Z 06003KT 29/08 A3018 RMK A01 T02910080  RH  027%=      5-min Rain = 0
KTAS 102233Z 04004KT 29/08 A3018 RMK A01 T02880081  RH  027%=      5-min Rain = 0
KTAS 102234Z 05003KT 29/08 A3018 RMK A01 T02860080  RH  027%=      5-min Rain = 0
KTAS 102235Z 08002KT 29/08 A3018 RMK A01 T02850079  RH  027%=      5-min Rain = 0
KTAS 102236Z 05003KT 29/08 A3018 RMK A01 T02860082  RH  028%=      5-min Rain = 0
KTAS 102237Z 07005KT 29/08 A3018 RMK A01 T02870082  RH  028%=      5-min Rain = 0
KTAS 102238Z 06007KT 29/08 A3018 RMK A01 T02880082  RH  027%=      5-min Rain = 0
KTAS 102239Z 06009KT 29/08 A3018 RMK A01 T02880082  RH  027%=      5-min Rain = 0
KTAS 102240Z 06007KT 29/08 A3018 RMK A01 T02870078  RH  027%=      5-min Rain = 0
KTAS 102241Z 06006KT 29/08 A3018 RMK A01 T02850081  RH  028%=      5-min Rain = 0
KTAS 102242Z 06004KT 29/08 A3018 RMK A01 T02860082  RH  028%=      5-min Rain = 0
KTAS 102243Z 03005KT 29/08 A3018 RMK A01 T02880082  RH  027%=      5-min Rain = 0
KTAS 102244Z 05004KT 29/08 A3018 RMK A01 T02880081  RH  027%=      5-min Rain = 0
KTAS 102245Z 11007KT 29/08 A3018 RMK A01 T02880080  RH  027%=      5-min Rain = 0
KTAS 102246Z 12009KT 29/08 A3018 RMK A01 T02890079  RH  027%=      5-min Rain = 0
KTAS 102247Z 11010KT 29/08 A3018 RMK A01 T02890080  RH  027%=      5-min Rain = 0
KTAS 102248Z 12007KT 29/08 A3018 RMK A01 T02900078  RH  026%=      5-min Rain = 0
KTAS 102249Z 12006KT 29/08 A3018 RMK A01 T02880077  RH  027%=      5-min Rain = 0
KTAS 102250Z 13005KT 29/08 A3018 RMK A01 T02860078  RH  027%=      5-min Rain = 0
KTAS 102251Z 13004KT 29/08 A3018 RMK A01 T02870077  RH  027%=      5-min Rain = 0
KTAS 102252Z 11004KT 29/08 A3018 RMK A01 T02870078  RH  027%=      5-min Rain = 0
KTAS 102253Z 10005KT 29/08 A3018 RMK A01 T02860078  RH  027%=      5-min Rain = 0
KTAS 102254Z 08004KT 29/08 A3018 RMK A01 T02870081  RH  027%=      5-min Rain = 0
KTAS 102255Z 05005KT 29/08 A3018 RMK A01 T02880080  RH  027%=      5-min Rain = 0
KTAS 102256Z 07004KT 29/08 A3018 RMK A01 T02870079  RH  027%=      5-min Rain = 0
KTAS 102257Z 07007KT 29/08 A3018 RMK A01 T02870082  RH  028%=      5-min Rain = 0
KTAS 102258Z 07010KT 29/08 A3018 RMK A01 T02870078  RH  027%=      5-min Rain = 0
KTAS 102259Z 06009KT 28/08 A3018 RMK A01 T02840079  RH  028%=      5-min Rain = 0
KTAS 102300Z 07007KT 28/08 A3018 RMK A01 T02830078  RH  028%=      5-min Rain = 0
KTAS 102301Z 07007KT 28/08 A3018 RMK A01 T02830081  RH  028%=      5-min Rain = 0
KTAS 102302Z 09008KT 29/08 A3018 RMK A01 T02850082  RH  028%=      5-min Rain = 0
KTAS 102303Z 08009KT 29/08 A3018 RMK A01 T02870081  RH  027%=      5-min Rain = 0
KTAS 102304Z 07008KT 29/08 A3018 RMK A01 T02860079  RH  027%=      5-min Rain = 0
KTAS 102305Z 08006KT 28/08 A3018 RMK A01 T02840080  RH  028%=      5-min Rain = 0
KTAS 102306Z 09006KT 29/08 A3018 RMK A01 T02850082  RH  028%=      5-min Rain = 0
KTAS 102307Z 10008KT 29/08 A3018 RMK A01 T02870083  RH  028%=      5-min Rain = 0
KTAS 102308Z 09008KT 29/08 A3018 RMK A01 T02880080  RH  027%=      5-min Rain = 0
KTAS 102309Z 09007KT 29/08 A3018 RMK A01 T02870078  RH  027%=      5-min Rain = 0
KTAS 102310Z 10006KT 29/08 A3018 RMK A01 T02850078  RH  027%=      5-min Rain = 0
KTAS 102311Z 11006KT 29/08 A3018 RMK A01 T02850079  RH  027%=      5-min Rain = 0
KTAS 102312Z 10005KT 29/08 A3018 RMK A01 T02850079  RH  027%=      5-min Rain = 0
KTAS 102313Z 10007KT 29/08 A3018 RMK A01 T02850079  RH  027%=      5-min Rain = 0
KTAS 102314Z 11005KT 28/08 A3018 RMK A01 T02840075  RH  027%=      5-min Rain = 0
KTAS 102315Z 10006KT 28/08 A3018 RMK A01 T02820078  RH  028%=      5-min Rain = 0
KTAS 102316Z 10005KT 28/08 A3018 RMK A01 T02830078  RH  028%=      5-min Rain = 0
KTAS 102317Z 09005KT 28/08 A3018 RMK A01 T02820079  RH  028%=      5-min Rain = 0
KTAS 102318Z 09006KT 28/08 A3018 RMK A01 T02830080  RH  028%=      5-min Rain = 0
KTAS 102319Z 10005KT 28/08 A3018 RMK A01 T02840079  RH  028%=      5-min Rain = 0
KTAS 102320Z 10006KT 28/08 A3018 RMK A01 T02840080  RH  028%=      5-min Rain = 0
KTAS 102321Z 09007KT 28/08 A3018 RMK A01 T02840080  RH  028%=      5-min Rain = 0
KTAS 102322Z 07007KT 28/08 A3018 RMK A01 T02830080  RH  028%=      5-min Rain = 0
KTAS 102323Z 08006KT 28/08 A3018 RMK A01 T02830082  RH  028%=      5-min Rain = 0
KTAS 102324Z 08007KT 28/08 A3018 RMK A01 T02830080  RH  028%=      5-min Rain = 0
KTAS 102325Z 10006KT 28/08 A3018 RMK A01 T02830076  RH  027%=      5-min Rain = 0
KTAS 102326Z 11005KT 28/08 A3018 RMK A01 T02820077  RH  027%=      5-min Rain = 0
KTAS 102327Z 11006KT 28/08 A3018 RMK A01 T02820079  RH  028%=      5-min Rain = 0
KTAS 102328Z 11005KT 28/08 A3018 RMK A01 T02830078  RH  028%=      5-min Rain = 0
KTAS 102329Z 09006KT 28/08 A3018 RMK A01 T02830080  RH  028%=      5-min Rain = 0
KTAS 102330Z 08005KT 28/08 A3018 RMK A01 T02840081  RH  028%=      5-min Rain = 0
KTAS 102331Z 07007KT 28/08 A3018 RMK A01 T02830079  RH  028%=      5-min Rain = 0
KTAS 102332Z 07006KT 28/08 A3019 RMK A01 T02810077  RH  028%=      5-min Rain = 0
KTAS 102333Z 07006KT 28/08 A3019 RMK A01 T02790077  RH  028%=      5-min Rain = 0
KTAS 102334Z 07006KT 28/08 A3019 RMK A01 T02790079  RH  028%=      5-min Rain = 0
KTAS 102335Z 07005KT 28/08 A3019 RMK A01 T02790077  RH  028%=      5-min Rain = 0
KTAS 102336Z 08004KT 28/08 A3019 RMK A01 T02790081  RH  029%=      5-min Rain = 0
KTAS 102337Z 07006KT 28/08 A3019 RMK A01 T02800080  RH  028%=      5-min Rain = 0
KTAS 102338Z 06004KT 28/08 A3019 RMK A01 T02800082  RH  029%=      5-min Rain = 0
KTAS 102339Z 06005KT 28/08 A3019 RMK A01 T02800083  RH  029%=      5-min Rain = 0
KTAS 102340Z 08004KT 28/08 A3019 RMK A01 T02800081  RH  029%=      5-min Rain = 0
KTAS 102341Z 06004KT 28/08 A3019 RMK A01 T02800081  RH  029%=      5-min Rain = 0
KTAS 102342Z 05005KT 28/08 A3019 RMK A01 T02810082  RH  029%=      5-min Rain = 0
KTAS 102343Z 05006KT 28/08 A3019 RMK A01 T02800082  RH  029%=      5-min Rain = 0
KTAS 102344Z 08008KT 28/08 A3018 RMK A01 T02800080  RH  028%=      5-min Rain = 0
KTAS 102345Z 10005KT 28/08 A3019 RMK A01 T02790078  RH  028%=      5-min Rain = 0
KTAS 102346Z 11007KT 28/08 A3019 RMK A01 T02790076  RH  028%=      5-min Rain = 0
KTAS 102347Z 10006KT 28/08 A3019 RMK A01 T02790075  RH  028%=      5-min Rain = 0
KTAS 102348Z 09006KT 28/08 A3019 RMK A01 T02790077  RH  028%=      5-min Rain = 0
KTAS 102349Z 10006KT 28/07 A3019 RMK A01 T02790074  RH  027%=      5-min Rain = 0
KTAS 102350Z 10004KT 28/08 A3019 RMK A01 T02790075  RH  028%=      5-min Rain = 0
KTAS 102351Z 07006KT 28/08 A3019 RMK A01 T02790077  RH  028%=      5-min Rain = 0
KTAS 102352Z 07005KT 28/08 A3018 RMK A01 T02770078  RH  028%=      5-min Rain = 0
KTAS 102353Z 08006KT 28/08 A3018 RMK A01 T02760079  RH  029%=      5-min Rain = 0
KTAS 102354Z 08006KT 28/08 A3018 RMK A01 T02760080  RH  029%=      5-min Rain = 0
KTAS 102355Z 08007KT 28/08 A3018 RMK A01 T02760079  RH  029%=      5-min Rain = 0
KTAS 102356Z 08006KT 28/08 A3018 RMK A01 T02760080  RH  029%=      5-min Rain = 0
KTAS 102357Z 08007KT 28/08 A3018 RMK A01 T02760079  RH  029%=      5-min Rain = 0
KTAS 102358Z 08008KT 28/08 A3018 RMK A01 T02760077  RH  029%=      5-min Rain = 0
KTAS 102359Z 09006KT 28/08 A3018 RMK A01 T02750079  RH  029%=      5-min Rain = 0
KTAS 110000Z 08007KT 27/08 A3018 RMK A01 T02740081  RH  029%=      5-min Rain = 0
KTAS 110001Z 08006KT 27/08 A3018 RMK A01 T02740081  RH  030%=      5-min Rain = 0
KTAS 110002Z 08006KT 27/08 A3018 RMK A01 T02740082  RH  030%=      5-min Rain = 0
KTAS 110003Z 09008KT 27/08 A3018 RMK A01 T02730081  RH  030%=      5-min Rain = 0
KTAS 110004Z 09007KT 27/08 A3018 RMK A01 T02730080  RH  030%=      5-min Rain = 0
KTAS 110005Z 09007KT 27/08 A3018 RMK A01 T02720082  RH  030%=      5-min Rain = 0
KTAS 110006Z 07007KT 27/08 A3018 RMK A01 T02720083  RH  030%=      5-min Rain = 0
KTAS 110007Z 07009KT 27/08 A3018 RMK A01 T02710081  RH  030%=      5-min Rain = 0
KTAS 110008Z 08007KT 27/08 A3018 RMK A01 T02700081  RH  030%=      5-min Rain = 0
KTAS 110009Z 07007KT 27/08 A3018 RMK A01 T02700083  RH  031%=      5-min Rain = 0
KTAS 110010Z 08008KT 27/08 A3018 RMK A01 T02690082  RH  031%=      5-min Rain = 0
KTAS 110011Z 08007KT 27/08 A3018 RMK A01 T02690082  RH  031%=      5-min Rain = 0
KTAS 110012Z 08008KT 27/08 A3018 RMK A01 T02680083  RH  031%=      5-min Rain = 0
KTAS 110013Z 07008KT 27/08 A3018 RMK A01 T02680083  RH  031%=      5-min Rain = 0
KTAS 110014Z 08007KT 27/08 A3018 RMK A01 T02670082  RH  031%=      5-min Rain = 0
KTAS 110015Z 08006KT 27/08 A3018 RMK A01 T02670084  RH  031%=      5-min Rain = 0
KTAS 110016Z 07007KT 27/09 A3018 RMK A01 T02670085  RH  032%=      5-min Rain = 0
KTAS 110017Z 08007KT 27/08 A3018 RMK A01 T02660084  RH  032%=      5-min Rain = 0
KTAS 110018Z 07006KT 27/09 A3018 RMK A01 T02650085  RH  032%=      5-min Rain = 0
KTAS 110019Z 07006KT 27/09 A3018 RMK A01 T02650086  RH  032%=      5-min Rain = 0
KTAS 110020Z 08006KT 26/09 A3018 RMK A01 T02640086  RH  032%=      5-min Rain = 0
KTAS 110021Z 08006KT 26/09 A3018 RMK A01 T02630086  RH  033%=      5-min Rain = 0
KTAS 110022Z 08007KT 26/09 A3018 RMK A01 T02630085  RH  032%=      5-min Rain = 0
KTAS 110023Z 08007KT 26/09 A3018 RMK A01 T02620085  RH  032%=      5-min Rain = 0
KTAS 110024Z 08006KT 26/09 A3018 RMK A01 T02620086  RH  033%=      5-min Rain = 0
KTAS 110025Z 08006KT 26/09 A3018 RMK A01 T02610087  RH  033%=      5-min Rain = 0
KTAS 110026Z 08006KT 26/09 A3018 RMK A01 T02600088  RH  034%=      5-min Rain = 0
KTAS 110027Z 08006KT 26/09 A3018 RMK A01 T02600089  RH  034%=      5-min Rain = 0
KTAS 110028Z 08005KT 26/09 A3018 RMK A01 T02590089  RH  034%=      5-min Rain = 0
KTAS 110029Z 08006KT 26/09 A3018 RMK A01 T02580090  RH  034%=      5-min Rain = 0
KTAS 110030Z 08006KT 26/09 A3018 RMK A01 T02570091  RH  035%=      5-min Rain = 0
KTAS 110031Z 09007KT 26/09 A3018 RMK A01 T02560090  RH  035%=      5-min Rain = 0
KTAS 110032Z 09006KT 26/09 A3018 RMK A01 T02560090  RH  035%=      5-min Rain = 0
KTAS 110033Z 09006KT 26/09 A3018 RMK A01 T02550089  RH  035%=      5-min Rain = 0
KTAS 110034Z 09005KT 26/09 A3018 RMK A01 T02550089  RH  035%=      5-min Rain = 0
KTAS 110035Z 08006KT 25/09 A3018 RMK A01 T02540090  RH  035%=      5-min Rain = 0
KTAS 110036Z 08006KT 25/09 A3018 RMK A01 T02530090  RH  036%=      5-min Rain = 0
KTAS 110037Z 08005KT 25/09 A3018 RMK A01 T02520091  RH  036%=      5-min Rain = 0
KTAS 110038Z 08006KT 25/09 A3018 RMK A01 T02500092  RH  037%=      5-min Rain = 0
KTAS 110039Z 08006KT 25/09 A3018 RMK A01 T02490092  RH  037%=      5-min Rain = 0
KTAS 110040Z 08006KT 25/09 A3018 RMK A01 T02480093  RH  037%=      5-min Rain = 0
KTAS 110041Z 08006KT 25/09 A3018 RMK A01 T02470092  RH  037%=      5-min Rain = 0
KTAS 110042Z 08006KT 25/09 A3018 RMK A01 T02460092  RH  038%=      5-min Rain = 0
KTAS 110043Z 08006KT 25/09 A3018 RMK A01 T02460091  RH  038%=      5-min Rain = 0
KTAS 110044Z 08006KT 25/09 A3018 RMK A01 T02450091  RH  038%=      5-min Rain = 0
KTAS 110045Z 08006KT 24/09 A3018 RMK A01 T02440091  RH  038%=      5-min Rain = 0
KTAS 110046Z 08006KT 24/09 A3018 RMK A01 T02430090  RH  038%=      5-min Rain = 0
KTAS 110047Z 08006KT 24/09 A3018 RMK A01 T02420090  RH  038%=      5-min Rain = 0
KTAS 110048Z 08006KT 24/09 A3018 RMK A01 T02420090  RH  038%=      5-min Rain = 0
KTAS 110049Z 08006KT 24/09 A3018 RMK A01 T02410090  RH  038%=      5-min Rain = 0
KTAS 110050Z 09006KT 24/09 A3018 RMK A01 T02400091  RH  039%=      5-min Rain = 0
KTAS 110051Z 08006KT 24/09 A3018 RMK A01 T02390091  RH  039%=      5-min Rain = 0
KTAS 110052Z 08006KT 24/09 A3018 RMK A01 T02370090  RH  039%=      5-min Rain = 0
KTAS 110053Z 08006KT 24/09 A3018 RMK A01 T02370091  RH  039%=      5-min Rain = 0
KTAS 110054Z 08006KT 24/09 A3018 RMK A01 T02350091  RH  040%=      5-min Rain = 0
KTAS 110055Z 08006KT 23/09 A3018 RMK A01 T02340091  RH  040%=      5-min Rain = 0
KTAS 110056Z 08006KT 23/09 A3018 RMK A01 T02330091  RH  040%=      5-min Rain = 0
KTAS 110057Z 08006KT 23/09 A3018 RMK A01 T02320091  RH  040%=      5-min Rain = 0
KTAS 110058Z 07006KT 23/09 A3018 RMK A01 T02310090  RH  041%=      5-min Rain = 0
KTAS 110059Z 07006KT 23/09 A3018 RMK A01 T02300090  RH  041%=      5-min Rain = 0
KTAS 110100Z 08006KT 23/09 A3018 RMK A01 T02290090  RH  041%=      5-min Rain = 0
KTAS 110101Z 08006KT 23/09 A3018 RMK A01 T02280090  RH  041%=      5-min Rain = 0
KTAS 110102Z 08006KT 23/09 A3018 RMK A01 T02270090  RH  041%=      5-min Rain = 0
KTAS 110103Z 08006KT 23/09 A3018 RMK A01 T02270090  RH  042%=      5-min Rain = 0
KTAS 110104Z 08007KT 23/09 A3018 RMK A01 T02260090  RH  042%=      5-min Rain = 0
KTAS 110105Z 08007KT 23/09 A3018 RMK A01 T02260090  RH  042%=      5-min Rain = 0
KTAS 110106Z 08006KT 23/09 A3018 RMK A01 T02250090  RH  042%=      5-min Rain = 0
KTAS 110107Z 08006KT 23/09 A3018 RMK A01 T02250090  RH  042%=      5-min Rain = 0
KTAS 110108Z 08006KT 22/09 A3018 RMK A01 T02240090  RH  042%=      5-min Rain = 0
KTAS 110109Z 08006KT 22/09 A3018 RMK A01 T02220090  RH  043%=      5-min Rain = 0
KTAS 110110Z 08006KT 22/09 A3018 RMK A01 T02210090  RH  043%=      5-min Rain = 0
KTAS 110111Z 08006KT 22/09 A3018 RMK A01 T02200090  RH  043%=      5-min Rain = 0
KTAS 110112Z 08006KT 22/09 A3018 RMK A01 T02190090  RH  044%=      5-min Rain = 0
KTAS 110113Z 08006KT 22/09 A3018 RMK A01 T02190090  RH  044%=      5-min Rain = 0
KTAS 110114Z 09006KT 22/09 A3018 RMK A01 T02170090  RH  044%=      5-min Rain = 0
KTAS 110115Z 09006KT 22/09 A3018 RMK A01 T02170091  RH  044%=      5-min Rain = 0
KTAS 110116Z 09006KT 22/09 A3018 RMK A01 T02160091  RH  045%=      5-min Rain = 0
KTAS 110117Z 09006KT 22/09 A3018 RMK A01 T02150091  RH  045%=      5-min Rain = 0
KTAS 110118Z 09006KT 22/09 A3018 RMK A01 T02150091  RH  045%=      5-min Rain = 0
KTAS 110119Z 09006KT 21/09 A3018 RMK A01 T02140091  RH  045%=      5-min Rain = 0
KTAS 110120Z 09006KT 21/09 A3018 RMK A01 T02140091  RH  046%=      5-min Rain = 0
KTAS 110121Z 09006KT 21/09 A3018 RMK A01 T02130091  RH  046%=      5-min Rain = 0
KTAS 110122Z 09006KT 21/09 A3018 RMK A01 T02120091  RH  046%=      5-min Rain = 0
KTAS 110123Z 09006KT 21/09 A3018 RMK A01 T02120091  RH  046%=      5-min Rain = 0
KTAS 110124Z 09007KT 21/09 A3018 RMK A01 T02110091  RH  046%=      5-min Rain = 0
KTAS 110125Z 09007KT 21/09 A3018 RMK A01 T02110091  RH  046%=      5-min Rain = 0
KTAS 110126Z 09007KT 21/09 A3018 RMK A01 T02110091  RH  046%=      5-min Rain = 0
KTAS 110127Z 09007KT 21/09 A3018 RMK A01 T02110090  RH  046%=      5-min Rain = 0
KTAS 110128Z 09007KT 21/09 A3018 RMK A01 T02110090  RH  046%=      5-min Rain = 0
KTAS 110129Z 09007KT 21/09 A3018 RMK A01 T02100090  RH  046%=      5-min Rain = 0
KTAS 110130Z 09007KT 21/09 A3018 RMK A01 T02100089  RH  046%=      5-min Rain = 0
KTAS 110131Z 09007KT 21/09 A3018 RMK A01 T02100089  RH  046%=      5-min Rain = 0
KTAS 110132Z 09007KT 21/09 A3018 RMK A01 T02100089  RH  046%=      5-min Rain = 0
KTAS 110133Z 09007KT 21/09 A3018 RMK A01 T02100088  RH  046%=      5-min Rain = 0
KTAS 110134Z 09007KT 21/09 A3018 RMK A01 T02100088  RH  046%=      5-min Rain = 0
KTAS 110135Z 09007KT 21/09 A3018 RMK A01 T02100088  RH  046%=      5-min Rain = 0
KTAS 110136Z 08007KT 21/09 A3018 RMK A01 T02100088  RH  046%=      5-min Rain = 0
KTAS 110137Z 09006KT 21/09 A3018 RMK A01 T02090088  RH  046%=      5-min Rain = 0
KTAS 110138Z 09006KT 21/09 A3018 RMK A01 T02090088  RH  046%=      5-min Rain = 0
KTAS 110139Z 09006KT 21/09 A3019 RMK A01 T02080088  RH  046%=      5-min Rain = 0
KTAS 110140Z 09006KT 21/09 A3019 RMK A01 T02080088  RH  046%=      5-min Rain = 0
KTAS 110141Z 09006KT 21/09 A3018 RMK A01 T02070087  RH  046%=      5-min Rain = 0
KTAS 110142Z 09006KT 21/09 A3018 RMK A01 T02060087  RH  046%=      5-min Rain = 0
KTAS 110143Z 09006KT 21/09 A3019 RMK A01 T02060087  RH  046%=      5-min Rain = 0
KTAS 110144Z 09006KT 21/09 A3019 RMK A01 T02060087  RH  047%=      5-min Rain = 0
KTAS 110145Z 09006KT 21/09 A3019 RMK A01 T02050087  RH  047%=      5-min Rain = 0
KTAS 110146Z 09006KT 21/09 A3019 RMK A01 T02050087  RH  047%=      5-min Rain = 0
KTAS 110147Z 09007KT 21/09 A3019 RMK A01 T02050087  RH  047%=      5-min Rain = 0
KTAS 110148Z 09006KT 21/09 A3019 RMK A01 T02050087  RH  047%=      5-min Rain = 0
KTAS 110149Z 09006KT 21/09 A3019 RMK A01 T02050087  RH  047%=      5-min Rain = 0
KTAS 110150Z 09007KT 21/09 A3019 RMK A01 T02050087  RH  047%=      5-min Rain = 0
KTAS 110151Z 09006KT 21/09 A3019 RMK A01 T02050087  RH  047%=      5-min Rain = 0
KTAS 110152Z 09006KT 21/09 A3019 RMK A01 T02050087  RH  047%=      5-min Rain = 0
KTAS 110153Z 09006KT 21/09 A3019 RMK A01 T02050087  RH  047%=      5-min Rain = 0
KTAS 110154Z 09006KT 20/09 A3019 RMK A01 T02040087  RH  047%=      5-min Rain = 0
KTAS 110155Z 10006KT 20/09 A3019 RMK A01 T02040087  RH  047%=      5-min Rain = 0
KTAS 110156Z 10007KT 20/09 A3019 RMK A01 T02040087  RH  047%=      5-min Rain = 0
KTAS 110157Z 10007KT 20/09 A3019 RMK A01 T02030087  RH  047%=      5-min Rain = 0
KTAS 110158Z 10007KT 20/09 A3019 RMK A01 T02030087  RH  047%=      5-min Rain = 0
KTAS 110159Z 10007KT 20/09 A3019 RMK A01 T02020087  RH  048%=      5-min Rain = 0
KTAS 110200Z 10007KT 20/09 A3019 RMK A01 T02020087  RH  048%=      5-min Rain = 0
KTAS 110201Z 10006KT 20/09 A3019 RMK A01 T02010088  RH  048%=      5-min Rain = 0
KTAS 110202Z 10006KT 20/09 A3019 RMK A01 T02000087  RH  048%=      5-min Rain = 0
KTAS 110203Z 11006KT 20/09 A3019 RMK A01 T02000088  RH  048%=      5-min Rain = 0
KTAS 110204Z 10006KT 20/09 A3019 RMK A01 T01990088  RH  049%=      5-min Rain = 0
KTAS 110205Z 10006KT 20/09 A3019 RMK A01 T01980088  RH  049%=      5-min Rain = 0
KTAS 110206Z 10006KT 20/09 A3019 RMK A01 T01970088  RH  049%=      5-min Rain = 0
KTAS 110207Z 10006KT 20/09 A3019 RMK A01 T01960088  RH  049%=      5-min Rain = 0
KTAS 110208Z 10006KT 20/09 A3019 RMK A01 T01960087  RH  049%=      5-min Rain = 0
KTAS 110209Z 10006KT 20/09 A302 RMK A01 T01960087  RH  049%=      5-min Rain = 0
KTAS 110210Z 10006KT 20/09 A302 RMK A01 T01970087  RH  049%=      5-min Rain = 0
KTAS 110211Z 10006KT 20/09 A302 RMK A01 T01970087  RH  049%=      5-min Rain = 0
KTAS 110212Z 10006KT 20/09 A302 RMK A01 T01970087  RH  049%=      5-min Rain = 0
KTAS 110213Z 11006KT 20/09 A302 RMK A01 T01970087  RH  049%=      5-min Rain = 0
KTAS 110214Z 10006KT 20/09 A302 RMK A01 T01970087  RH  049%=      5-min Rain = 0
KTAS 110215Z 11006KT 20/09 A302 RMK A01 T01960087  RH  049%=      5-min Rain = 0
KTAS 110216Z 11006KT 20/09 A302 RMK A01 T01950087  RH  049%=      5-min Rain = 0
KTAS 110217Z 11006KT 20/09 A302 RMK A01 T01950087  RH  050%=      5-min Rain = 0
KTAS 110218Z 11006KT 20/09 A302 RMK A01 T01950087  RH  050%=      5-min Rain = 0
KTAS 110219Z 11006KT 19/09 A302 RMK A01 T01940087  RH  050%=      5-min Rain = 0
KTAS 110220Z 11006KT 19/09 A302 RMK A01 T01940087  RH  050%=      5-min Rain = 0
KTAS 110221Z 11006KT 20/09 A302 RMK A01 T01950086  RH  050%=      5-min Rain = 0
KTAS 110222Z 11006KT 20/09 A302 RMK A01 T01950086  RH  049%=      5-min Rain = 0
KTAS 110223Z 11006KT 20/09 A302 RMK A01 T01950086  RH  049%=      5-min Rain = 0
KTAS 110224Z 11006KT 19/09 A302 RMK A01 T01940086  RH  049%=      5-min Rain = 0
KTAS 110225Z 11006KT 19/09 A302 RMK A01 T01940086  RH  050%=      5-min Rain = 0
KTAS 110226Z 12006KT 19/09 A302 RMK A01 T01940086  RH  050%=      5-min Rain = 0
KTAS 110227Z 12006KT 20/09 A302 RMK A01 T01950086  RH  049%=      5-min Rain = 0
KTAS 110228Z 12006KT 20/09 A302 RMK A01 T01950086  RH  049%=      5-min Rain = 0
KTAS 110229Z 12007KT 20/09 A302 RMK A01 T01950087  RH  049%=      5-min Rain = 0
KTAS 110230Z 12006KT 20/09 A302 RMK A01 T01960087  RH  049%=      5-min Rain = 0
KTAS 110231Z 12006KT 20/09 A302 RMK A01 T01960087  RH  049%=      5-min Rain = 0
KTAS 110232Z 12006KT 20/09 A302 RMK A01 T01950087  RH  049%=      5-min Rain = 0
KTAS 110233Z 13006KT 20/09 A302 RMK A01 T01950087  RH  050%=      5-min Rain = 0
KTAS 110234Z 12006KT 20/09 A302 RMK A01 T01950088  RH  050%=      5-min Rain = 0
KTAS 110235Z 12006KT 20/09 A302 RMK A01 T01950088  RH  050%=      5-min Rain = 0
KTAS 110236Z 12006KT 20/09 A3021 RMK A01 T01950088  RH  050%=      5-min Rain = 0
KTAS 110237Z 13006KT 20/09 A3021 RMK A01 T01950089  RH  050%=      5-min Rain = 0
KTAS 110238Z 13006KT 20/09 A3021 RMK A01 T01950089  RH  050%=      5-min Rain = 0
KTAS 110239Z 13006KT 20/09 A3021 RMK A01 T01950089  RH  050%=      5-min Rain = 0
KTAS 110240Z 13006KT 20/09 A3021 RMK A01 T01950089  RH  050%=      5-min Rain = 0
KTAS 110241Z 13006KT 19/09 A3021 RMK A01 T01940089  RH  051%=      5-min Rain = 0
KTAS 110242Z 13006KT 19/09 A3021 RMK A01 T01940089  RH  051%=      5-min Rain = 0
KTAS 110243Z 13006KT 19/09 A3021 RMK A01 T01940089  RH  051%=      5-min Rain = 0
KTAS 110244Z 13006KT 19/09 A3021 RMK A01 T01940089  RH  051%=      5-min Rain = 0
KTAS 110245Z 13006KT 19/09 A3021 RMK A01 T01940089  RH  051%=      5-min Rain = 0
KTAS 110246Z 13007KT 19/09 A3021 RMK A01 T01940089  RH  051%=      5-min Rain = 0
KTAS 110247Z 13007KT 19/09 A3021 RMK A01 T01940089  RH  051%=      5-min Rain = 0
KTAS 110248Z 13006KT 19/09 A3021 RMK A01 T01940089  RH  050%=      5-min Rain = 0
KTAS 110249Z 13006KT 19/09 A3021 RMK A01 T01940088  RH  050%=      5-min Rain = 0
KTAS 110250Z 12006KT 20/09 A3021 RMK A01 T01950088  RH  050%=      5-min Rain = 0
KTAS 110251Z 13006KT 19/09 A3021 RMK A01 T01940088  RH  050%=      5-min Rain = 0
KTAS 110252Z 13006KT 20/09 A3021 RMK A01 T01950088  RH  050%=      5-min Rain = 0
KTAS 110253Z 13006KT 20/09 A3021 RMK A01 T01950088  RH  050%=      5-min Rain = 0
KTAS 110254Z 13006KT 20/09 A3021 RMK A01 T01950088  RH  050%=      5-min Rain = 0
KTAS 110255Z 13006KT 20/09 A3021 RMK A01 T01950088  RH  050%=      5-min Rain = 0
KTAS 110256Z 13006KT 19/09 A3021 RMK A01 T01940088  RH  050%=      5-min Rain = 0
KTAS 110257Z 13006KT 19/09 A3021 RMK A01 T01940087  RH  050%=      5-min Rain = 0
KTAS 110258Z 13005KT 19/09 A3021 RMK A01 T01940087  RH  050%=      5-min Rain = 0
KTAS 110259Z 12005KT 19/09 A3021 RMK A01 T01930087  RH  050%=      5-min Rain = 0
KTAS 110300Z 12005KT 19/09 A3021 RMK A01 T01920087  RH  051%=      5-min Rain = 0
KTAS 110301Z 12004KT 19/09 A3021 RMK A01 T01910088  RH  051%=      5-min Rain = 0
KTAS 110302Z 11004KT 19/09 A3021 RMK A01 T01900088  RH  052%=      5-min Rain = 0
KTAS 110303Z 10005KT 19/09 A3021 RMK A01 T01880088  RH  052%=      5-min Rain = 0
KTAS 110304Z 11005KT 19/09 A3022 RMK A01 T01880088  RH  052%=      5-min Rain = 0
KTAS 110305Z 11005KT 19/09 A3022 RMK A01 T01870088  RH  052%=      5-min Rain = 0
KTAS 110306Z 11005KT 19/09 A3022 RMK A01 T01860088  RH  053%=      5-min Rain = 0
KTAS 110307Z 11005KT 19/09 A3022 RMK A01 T01860088  RH  053%=      5-min Rain = 0
KTAS 110308Z 11005KT 19/09 A3022 RMK A01 T01850088  RH  053%=      5-min Rain = 0
KTAS 110309Z 12005KT 18/09 A3022 RMK A01 T01840088  RH  053%=      5-min Rain = 0
KTAS 110310Z 12005KT 18/09 A3022 RMK A01 T01840088  RH  053%=      5-min Rain = 0
KTAS 110311Z 12005KT 18/09 A3022 RMK A01 T01830087  RH  054%=      5-min Rain = 0
KTAS 110312Z 12005KT 18/09 A3022 RMK A01 T01820087  RH  054%=      5-min Rain = 0
KTAS 110313Z 12005KT 18/09 A3022 RMK A01 T01810087  RH  054%=      5-min Rain = 0
KTAS 110314Z 11005KT 18/09 A3022 RMK A01 T01810087  RH  054%=      5-min Rain = 0
KTAS 110315Z 11005KT 18/09 A3022 RMK A01 T01800088  RH  055%=      5-min Rain = 0
KTAS 110316Z 11005KT 18/09 A3022 RMK A01 T01800088  RH  055%=      5-min Rain = 0
KTAS 110317Z 11005KT 18/09 A3022 RMK A01 T01790088  RH  055%=      5-min Rain = 0
KTAS 110318Z 11005KT 18/09 A3022 RMK A01 T01800088  RH  055%=      5-min Rain = 0
KTAS 110319Z 11005KT 18/09 A3022 RMK A01 T01800088  RH  055%=      5-min Rain = 0
KTAS 110320Z 11005KT 18/09 A3022 RMK A01 T01800088  RH  055%=      5-min Rain = 0
KTAS 110321Z 11004KT 18/09 A3022 RMK A01 T01790087  RH  055%=      5-min Rain = 0
KTAS 110322Z 11005KT 18/09 A3022 RMK A01 T01790087  RH  055%=      5-min Rain = 0
KTAS 110323Z 11005KT 18/09 A3022 RMK A01 T01790087  RH  055%=      5-min Rain = 0
KTAS 110324Z 11005KT 18/09 A3022 RMK A01 T01780087  RH  055%=      5-min Rain = 0
KTAS 110325Z 11005KT 18/09 A3022 RMK A01 T01780087  RH  055%=      5-min Rain = 0
KTAS 110326Z 11005KT 18/09 A3022 RMK A01 T01780087  RH  055%=      5-min Rain = 0
KTAS 110327Z 11005KT 18/09 A3022 RMK A01 T01770087  RH  055%=      5-min Rain = 0
KTAS 110328Z 12005KT 18/09 A3022 RMK A01 T01770087  RH  055%=      5-min Rain = 0
KTAS 110329Z 12005KT 18/09 A3022 RMK A01 T01770087  RH  055%=      5-min Rain = 0
KTAS 110330Z 12005KT 18/09 A3022 RMK A01 T01770087  RH  055%=      5-min Rain = 0
KTAS 110331Z 12006KT 18/09 A3022 RMK A01 T01770087  RH  055%=      5-min Rain = 0
KTAS 110332Z 12006KT 18/09 A3022 RMK A01 T01780087  RH  055%=      5-min Rain = 0
KTAS 110333Z 12006KT 18/09 A3022 RMK A01 T01780087  RH  055%=      5-min Rain = 0
KTAS 110334Z 12006KT 18/09 A3022 RMK A01 T01780086  RH  055%=      5-min Rain = 0
KTAS 110335Z 12006KT 18/09 A3022 RMK A01 T01770086  RH  055%=      5-min Rain = 0
KTAS 110336Z 12005KT 18/09 A3022 RMK A01 T01770086  RH  055%=      5-min Rain = 0
KTAS 110337Z 12005KT 18/09 A3022 RMK A01 T01760086  RH  055%=      5-min Rain = 0
KTAS 110338Z 12005KT 18/09 A3022 RMK A01 T01760086  RH  056%=      5-min Rain = 0
KTAS 110339Z 12005KT 18/09 A3022 RMK A01 T01760086  RH  056%=      5-min Rain = 0
KTAS 110340Z 12005KT 18/09 A3022 RMK A01 T01760086  RH  056%=      5-min Rain = 0
KTAS 110341Z 12005KT 18/09 A3022 RMK A01 T01760086  RH  055%=      5-min Rain = 0
KTAS 110342Z 12005KT 18/09 A3022 RMK A01 T01770086  RH  055%=      5-min Rain = 0
KTAS 110343Z 12005KT 18/09 A3022 RMK A01 T01770086  RH  055%=      5-min Rain = 0
KTAS 110344Z 12005KT 18/09 A3022 RMK A01 T01760086  RH  055%=      5-min Rain = 0
KTAS 110345Z 12005KT 18/09 A3022 RMK A01 T01760085  RH  055%=      5-min Rain = 0
KTAS 110346Z 12005KT 18/09 A3022 RMK A01 T01760085  RH  055%=      5-min Rain = 0
KTAS 110347Z 12005KT 18/09 A3022 RMK A01 T01750085  RH  056%=      5-min Rain = 0
KTAS 110348Z 12005KT 17/09 A3022 RMK A01 T01740085  RH  056%=      5-min Rain = 0
KTAS 110349Z 12004KT 17/09 A3022 RMK A01 T01730085  RH  056%=      5-min Rain = 0
KTAS 110350Z 12005KT 17/09 A3022 RMK A01 T01720086  RH  057%=      5-min Rain = 0
KTAS 110351Z 12005KT 17/09 A3022 RMK A01 T01710086  RH  057%=      5-min Rain = 0
KTAS 110352Z 12005KT 17/09 A3022 RMK A01 T01710086  RH  057%=      5-min Rain = 0
KTAS 110353Z 12005KT 17/09 A3022 RMK A01 T01710086  RH  057%=      5-min Rain = 0
KTAS 110354Z 12005KT 17/09 A3022 RMK A01 T01700086  RH  057%=      5-min Rain = 0
KTAS 110355Z 12005KT 17/09 A3022 RMK A01 T01700085  RH  057%=      5-min Rain = 0
KTAS 110356Z 12005KT 17/09 A3022 RMK A01 T01700085  RH  058%=      5-min Rain = 0
KTAS 110357Z 11005KT 17/09 A3022 RMK A01 T01690085  RH  058%=      5-min Rain = 0
KTAS 110358Z 11005KT 17/09 A3022 RMK A01 T01690085  RH  058%=      5-min Rain = 0
KTAS 110359Z 11004KT 17/09 A3022 RMK A01 T01680085  RH  058%=      5-min Rain = 0
KTAS 110400Z 11004KT 17/09 A3022 RMK A01 T01680085  RH  058%=      5-min Rain = 0
KTAS 110401Z 11005KT 17/09 A3022 RMK A01 T01670085  RH  058%=      5-min Rain = 0
KTAS 110402Z 12005KT 17/09 A3022 RMK A01 T01670085  RH  058%=      5-min Rain = 0
KTAS 110403Z 12005KT 17/09 A3023 RMK A01 T01670085  RH  058%=      5-min Rain = 0
KTAS 110404Z 12005KT 17/08 A3023 RMK A01 T01670084  RH  058%=      5-min Rain = 0
KTAS 110405Z 11005KT 17/08 A3023 RMK A01 T01660084  RH  058%=      5-min Rain = 0
KTAS 110406Z 11005KT 17/09 A3023 RMK A01 T01660085  RH  059%=      5-min Rain = 0
KTAS 110407Z 10004KT 17/09 A3023 RMK A01 T01670085  RH  059%=      5-min Rain = 0
KTAS 110408Z 10004KT 17/09 A3023 RMK A01 T01670085  RH  059%=      5-min Rain = 0
KTAS 110409Z 10004KT 17/09 A3023 RMK A01 T01660085  RH  059%=      5-min Rain = 0
KTAS 110410Z 09004KT 17/09 A3023 RMK A01 T01660085  RH  059%=      5-min Rain = 0
KTAS 110411Z 09004KT 17/09 A3023 RMK A01 T01650085  RH  059%=      5-min Rain = 0
KTAS 110412Z 09004KT 17/09 A3023 RMK A01 T01650085  RH  059%=      5-min Rain = 0
KTAS 110413Z 09004KT 16/09 A3023 RMK A01 T01640085  RH  059%=      5-min Rain = 0
KTAS 110414Z 09004KT 16/09 A3023 RMK A01 T01640085  RH  059%=      5-min Rain = 0
KTAS 110415Z 09004KT 16/09 A3023 RMK A01 T01640085  RH  060%=      5-min Rain = 0
KTAS 110416Z 09004KT 16/09 A3023 RMK A01 T01630085  RH  060%=      5-min Rain = 0
KTAS 110417Z 09003KT 16/09 A3023 RMK A01 T01620085  RH  060%=      5-min Rain = 0
KTAS 110418Z 08004KT 16/09 A3023 RMK A01 T01610085  RH  060%=      5-min Rain = 0
KTAS 110419Z 08003KT 16/09 A3023 RMK A01 T01610086  RH  061%=      5-min Rain = 0
KTAS 110420Z 09002KT 16/09 A3023 RMK A01 T01590086  RH  062%=      5-min Rain = 0
KTAS 110421Z 09002KT 16/09 A3023 RMK A01 T01570087  RH  063%=      5-min Rain = 0
KTAS 110422Z 10003KT 16/09 A3023 RMK A01 T01560088  RH  064%=      5-min Rain = 0
KTAS 110423Z 10002KT 16/09 A3023 RMK A01 T01550089  RH  065%=      5-min Rain = 0
KTAS 110424Z 10002KT 15/09 A3023 RMK A01 T01540090  RH  066%=      5-min Rain = 0
KTAS 110425Z 10002KT 15/09 A3023 RMK A01 T01540090  RH  066%=      5-min Rain = 0
KTAS 110426Z 10002KT 15/09 A3023 RMK A01 T01540094  RH  067%=      5-min Rain = 0
KTAS 110427Z 08003KT 15/10 A3023 RMK A01 T01540095  RH  068%=      5-min Rain = 0
KTAS 110428Z 08003KT 15/10 A3023 RMK A01 T01540096  RH  068%=      5-min Rain = 0
KTAS 110429Z 10003KT 16/10 A3023 RMK A01 T01550095  RH  068%=      5-min Rain = 0
KTAS 110430Z 10003KT 15/09 A3023 RMK A01 T01540093  RH  067%=      5-min Rain = 0
KTAS 110431Z 10003KT 15/09 A3023 RMK A01 T01530089  RH  066%=      5-min Rain = 0
KTAS 110432Z 10003KT 15/09 A3023 RMK A01 T01520087  RH  065%=      5-min Rain = 0
KTAS 110433Z 11003KT 15/09 A3023 RMK A01 T01520087  RH  065%=      5-min Rain = 0
KTAS 110434Z 12002KT 15/09 A3023 RMK A01 T01520088  RH  066%=      5-min Rain = 0
KTAS 110435Z 12002KT 15/09 A3023 RMK A01 T01520089  RH  066%=      5-min Rain = 0
KTAS 110436Z 12003KT 15/09 A3023 RMK A01 T01520089  RH  066%=      5-min Rain = 0
KTAS 110437Z 10003KT 15/09 A3023 RMK A01 T01530088  RH  065%=      5-min Rain = 0
KTAS 110438Z 10003KT 15/09 A3023 RMK A01 T01530087  RH  065%=      5-min Rain = 0
KTAS 110439Z 10003KT 15/09 A3023 RMK A01 T01530086  RH  064%=      5-min Rain = 0
KTAS 110440Z 11004KT 15/09 A3023 RMK A01 T01530086  RH  064%=      5-min Rain = 0
KTAS 110441Z 11004KT 15/09 A3023 RMK A01 T01530086  RH  064%=      5-min Rain = 0
KTAS 110442Z 11004KT 15/09 A3023 RMK A01 T01530086  RH  064%=      5-min Rain = 0
KTAS 110443Z 11004KT 15/09 A3023 RMK A01 T01530085  RH  064%=      5-min Rain = 0
KTAS 110444Z 11004KT 15/09 A3023 RMK A01 T01530085  RH  064%=      5-min Rain = 0
KTAS 110445Z 10004KT 16/09 A3023 RMK A01 T01550085  RH  063%=      5-min Rain = 0
KTAS 110446Z 11005KT 16/09 A3023 RMK A01 T01560085  RH  062%=      5-min Rain = 0
KTAS 110447Z 11005KT 16/08 A3023 RMK A01 T01570084  RH  062%=      5-min Rain = 0
KTAS 110448Z 10004KT 16/08 A3023 RMK A01 T01580084  RH  061%=      5-min Rain = 0
KTAS 110449Z 10004KT 16/08 A3023 RMK A01 T01580084  RH  061%=      5-min Rain = 0
KTAS 110450Z 11005KT 16/08 A3023 RMK A01 T01580084  RH  061%=      5-min Rain = 0
KTAS 110451Z 11005KT 16/08 A3023 RMK A01 T01580083  RH  061%=      5-min Rain = 0
KTAS 110452Z 10004KT 16/08 A3023 RMK A01 T01580083  RH  061%=      5-min Rain = 0
KTAS 110453Z 10005KT 16/08 A3023 RMK A01 T01580083  RH  061%=      5-min Rain = 0
KTAS 110454Z 09004KT 16/08 A3023 RMK A01 T01580083  RH  061%=      5-min Rain = 0
KTAS 110455Z 09004KT 16/08 A3023 RMK A01 T01580083  RH  061%=      5-min Rain = 0
KTAS 110456Z 09004KT 16/08 A3023 RMK A01 T01580083  RH  061%=      5-min Rain = 0
KTAS 110457Z 08004KT 16/08 A3023 RMK A01 T01570082  RH  061%=      5-min Rain = 0
KTAS 110458Z 10005KT 16/08 A3023 RMK A01 T01550082  RH  062%=      5-min Rain = 0
KTAS 110459Z 08004KT 15/08 A3023 RMK A01 T01540082  RH  062%=      5-min Rain = 0

Page generated in 0.0742 seconds.